Time,TemperatureF,DewpointF,PressureIn,WindDirection,WindDirectionDegrees,WindSpeedMPH,WindSpeedGustMPH,Humidity,HourlyPrecipIn,Conditions,Clouds,dailyrainin,SoftwareType,DateUTC
2013-01-28 00:00:00,17.2,8.1,30.39,SSE,157,0.0,0.0,67,0.00,,,0.00,WUHU21623XXSP,2013-01-28 05:00:00,
2013-01-28 00:02:00,17.2,8.1,30.39,SSE,157,0.0,0.0,67,0.00,,,0.00,WUHU21623XXSP,2013-01-28 05:02:00,
2013-01-28 00:04:00,17.2,7.4,30.39,SE,135,0.2,0.2,65,0.00,,,0.00,WUHU21623XXSP,2013-01-28 05:04:00,
2013-01-28 00:06:00,17.4,7.3,30.39,SE,135,1.1,1.1,64,0.00,,,0.00,WUHU21623XXSP,2013-01-28 05:06:00,
2013-01-28 00:09:00,17.4,7.3,30.38,SE,135,0.0,1.1,64,0.00,,,0.00,WUHU21623XXSP,2013-01-28 05:09:00,
2013-01-28 00:11:00,17.4,7.3,30.38,SE,135,0.0,1.1,64,0.00,,,0.00,WUHU21623XXSP,2013-01-28 05:11:00,
2013-01-28 00:13:00,17.4,6.9,30.39,SE,135,1.8,1.8,63,0.00,,,0.00,WUHU21623XXSP,2013-01-28 05:13:00,
2013-01-28 00:15:00,17.8,7.3,30.39,SE,135,0.0,1.8,63,0.00,,,0.00,WUHU21623XXSP,2013-01-28 05:15:00,
2013-01-28 00:17:00,17.8,7.3,30.39,SE,135,0.0,1.8,63,0.00,,,0.00,WUHU21623XXSP,2013-01-28 05:17:00,
2013-01-28 00:19:00,17.8,7.6,30.39,SE,135,0.0,1.8,64,0.00,,,0.00,WUHU21623XXSP,2013-01-28 05:19:00,
2013-01-28 00:21:00,17.8,7.3,30.39,SE,135,0.0,1.8,63,0.00,,,0.00,WUHU21623XXSP,2013-01-28 05:21:00,
2013-01-28 00:24:00,17.8,7.3,30.38,SE,135,0.0,0.0,63,0.00,,,0.00,WUHU21623XXSP,2013-01-28 05:24:00,
2013-01-28 00:26:00,17.8,7.6,30.38,SE,135,0.0,0.0,64,0.00,,,0.00,WUHU21623XXSP,2013-01-28 05:26:00,
2013-01-28 00:28:00,17.8,7.6,30.38,SE,135,0.0,0.0,64,0.00,,,0.00,WUHU21623XXSP,2013-01-28 05:28:00,
2013-01-28 00:30:00,18.0,7.8,30.38,SE,135,0.0,0.0,64,0.00,,,0.00,WUHU21623XXSP,2013-01-28 05:30:00,
2013-01-28 00:32:00,18.0,7.8,30.38,SE,135,0.0,0.0,64,0.00,,,0.00,WUHU21623XXSP,2013-01-28 05:32:00,
2013-01-28 00:34:00,18.0,7.8,30.38,SE,135,0.0,0.0,64,0.00,,,0.00,WUHU21623XXSP,2013-01-28 05:34:00,
2013-01-28 00:36:00,18.0,7.8,30.38,SE,135,0.0,0.0,64,0.00,,,0.00,WUHU21623XXSP,2013-01-28 05:36:00,
2013-01-28 00:39:00,18.0,7.8,30.38,ESE,112,0.0,0.0,64,0.00,,,0.00,WUHU21623XXSP,2013-01-28 05:39:00,
2013-01-28 00:41:00,18.0,7.8,30.37,ESE,112,0.0,0.0,64,0.00,,,0.00,WUHU21623XXSP,2013-01-28 05:41:00,
2013-01-28 00:43:00,18.0,7.8,30.37,ESE,112,0.0,0.0,64,0.00,,,0.00,WUHU21623XXSP,2013-01-28 05:43:00,
2013-01-28 00:45:00,18.0,8.1,30.37,ESE,112,0.0,0.0,65,0.00,,,0.00,WUHU21623XXSP,2013-01-28 05:45:00,
2013-01-28 00:47:00,18.0,8.1,30.37,ESE,112,0.0,0.0,65,0.00,,,0.00,WUHU21623XXSP,2013-01-28 05:47:00,
2013-01-28 00:50:00,18.0,8.1,30.37,ESE,112,0.0,0.0,65,0.00,,,0.00,WUHU21623XXSP,2013-01-28 05:50:00,
2013-01-28 00:52:00,18.0,7.8,30.36,ESE,112,0.0,0.0,64,0.00,,,0.00,WUHU21623XXSP,2013-01-28 05:52:00,
2013-01-28 00:54:00,18.0,7.8,30.36,ESE,112,0.0,0.0,64,0.00,,,0.00,WUHU21623XXSP,2013-01-28 05:54:00,
2013-01-28 00:56:00,18.0,7.8,30.36,ESE,112,0.0,0.0,64,0.00,,,0.00,WUHU21623XXSP,2013-01-28 05:56:00,
2013-01-28 00:58:00,18.0,7.8,30.36,ESE,112,0.0,0.0,64,0.00,,,0.00,WUHU21623XXSP,2013-01-28 05:58:00,
2013-01-28 01:00:00,18.1,7.6,30.36,SSE,157,4.7,4.7,63,0.00,,,0.00,WUHU21623XXSP,2013-01-28 06:00:00,
2013-01-28 01:02:00,18.3,7.1,30.35,SSE,157,7.2,7.2,61,0.00,,,0.00,WUHU21623XXSP,2013-01-28 06:02:00,
2013-01-28 01:04:00,18.3,7.1,30.35,South,180,3.4,7.2,61,0.00,,,0.00,WUHU21623XXSP,2013-01-28 06:04:00,
2013-01-28 01:06:00,18.3,7.4,30.36,South,180,0.0,7.2,62,0.00,,,0.00,WUHU21623XXSP,2013-01-28 06:06:00,
2013-01-28 01:09:00,18.5,7.6,30.36,South,180,0.0,7.2,62,0.00,,,0.00,WUHU21623XXSP,2013-01-28 06:09:00,
2013-01-28 01:11:00,18.5,7.6,30.36,South,180,0.0,7.2,62,0.00,,,0.00,WUHU21623XXSP,2013-01-28 06:11:00,
2013-01-28 01:13:00,18.5,7.6,30.36,South,180,0.0,3.4,62,0.00,,,0.00,WUHU21623XXSP,2013-01-28 06:13:00,
2013-01-28 01:15:00,18.5,7.6,30.36,South,180,0.0,0.0,62,0.00,,,0.00,WUHU21623XXSP,2013-01-28 06:15:00,
2013-01-28 01:17:00,18.5,7.6,30.36,South,180,0.0,0.0,62,0.00,,,0.00,WUHU21623XXSP,2013-01-28 06:17:00,
2013-01-28 01:19:00,18.5,7.6,30.35,South,180,0.0,0.0,62,0.00,,,0.00,WUHU21623XXSP,2013-01-28 06:19:00,
2013-01-28 01:21:00,18.5,7.9,30.35,South,180,0.0,0.0,63,0.00,,,0.00,WUHU21623XXSP,2013-01-28 06:21:00,
2013-01-28 01:23:00,18.5,7.9,30.36,South,180,0.0,0.0,63,0.00,,,0.00,WUHU21623XXSP,2013-01-28 06:23:00,
2013-01-28 01:26:00,18.5,8.3,30.36,South,180,2.7,2.7,64,0.00,,,0.00,WUHU21623XXSP,2013-01-28 06:26:00,
2013-01-28 01:28:00,18.3,8.8,30.36,South,180,0.7,2.7,66,0.00,,,0.00,WUHU21623XXSP,2013-01-28 06:28:00,
2013-01-28 01:30:00,18.1,8.6,30.36,South,180,0.0,2.7,66,0.00,,,0.00,WUHU21623XXSP,2013-01-28 06:30:00,
2013-01-28 01:32:00,18.1,8.6,30.35,South,180,0.0,2.7,66,0.00,,,0.00,WUHU21623XXSP,2013-01-28 06:32:00,
2013-01-28 01:34:00,18.1,8.6,30.36,South,180,0.0,2.7,66,0.00,,,0.00,WUHU21623XXSP,2013-01-28 06:34:00,
2013-01-28 01:36:00,18.0,8.5,30.35,South,180,0.0,0.7,66,0.00,,,0.00,WUHU21623XXSP,2013-01-28 06:36:00,
2013-01-28 01:38:00,18.0,8.5,30.35,South,180,0.0,0.0,66,0.00,,,0.00,WUHU21623XXSP,2013-01-28 06:38:00,
2013-01-28 01:41:00,17.8,8.3,30.35,ENE,67,1.3,1.3,66,0.00,,,0.00,WUHU21623XXSP,2013-01-28 06:41:00,
2013-01-28 01:43:00,17.8,8.3,30.35,ENE,67,0.0,1.3,66,0.00,,,0.00,WUHU21623XXSP,2013-01-28 06:43:00,
2013-01-28 01:45:00,17.8,8.3,30.35,ENE,67,0.0,1.3,66,0.00,,,0.00,WUHU21623XXSP,2013-01-28 06:45:00,
2013-01-28 01:47:00,17.8,8.3,30.35,ENE,67,0.0,1.3,66,0.00,,,0.00,WUHU21623XXSP,2013-01-28 06:47:00,
2013-01-28 01:50:00,17.8,8.3,30.35,ENE,67,0.0,1.3,66,0.00,,,0.00,WUHU21623XXSP,2013-01-28 06:50:00,
2013-01-28 01:52:00,17.8,8.3,30.34,ENE,67,0.0,0.0,66,0.00,,,0.00,WUHU21623XXSP,2013-01-28 06:52:00,
2013-01-28 01:53:00,17.8,8.3,30.35,ENE,67,0.0,0.0,66,0.00,,,0.00,WUHU21623XXSP,2013-01-28 06:53:00,
2013-01-28 01:55:00,17.8,8.3,30.35,ENE,67,0.0,0.0,66,0.00,,,0.00,WUHU21623XXSP,2013-01-28 06:55:00,
2013-01-28 01:58:00,17.8,8.3,30.35,ENE,67,0.0,0.0,66,0.00,,,0.00,WUHU21623XXSP,2013-01-28 06:58:00,
2013-01-28 02:00:00,17.8,8.3,30.34,ENE,67,0.0,0.0,66,0.00,,,0.00,WUHU21623XXSP,2013-01-28 07:00:00,
2013-01-28 02:02:00,17.8,8.3,30.34,ENE,67,0.0,0.0,66,0.00,,,0.00,WUHU21623XXSP,2013-01-28 07:02:00,
2013-01-28 02:04:00,17.8,8.3,30.34,ENE,67,0.0,0.0,66,0.00,,,0.00,WUHU21623XXSP,2013-01-28 07:04:00,
2013-01-28 02:06:00,17.8,8.3,30.34,ENE,67,0.0,0.0,66,0.00,,,0.00,WUHU21623XXSP,2013-01-28 07:06:00,
2013-01-28 02:08:00,17.8,8.3,30.34,ENE,67,0.0,0.0,66,0.00,,,0.00,WUHU21623XXSP,2013-01-28 07:08:00,
2013-01-28 02:11:00,17.8,8.3,30.34,ENE,67,0.0,0.0,66,0.00,,,0.00,WUHU21623XXSP,2013-01-28 07:11:00,
2013-01-28 02:13:00,17.8,8.3,30.34,ENE,67,0.0,0.0,66,0.00,,,0.00,WUHU21623XXSP,2013-01-28 07:13:00,
2013-01-28 02:15:00,18.0,8.5,30.33,ENE,67,0.0,0.0,66,0.00,,,0.00,WUHU21623XXSP,2013-01-28 07:15:00,
2013-01-28 02:17:00,17.8,8.3,30.34,ENE,67,0.0,0.0,66,0.00,,,0.00,WUHU21623XXSP,2013-01-28 07:17:00,
2013-01-28 02:19:00,18.0,8.8,30.34,ENE,67,0.0,0.0,67,0.00,,,0.00,WUHU21623XXSP,2013-01-28 07:19:00,
2013-01-28 02:21:00,18.0,8.8,30.33,ENE,67,0.0,0.0,67,0.00,,,0.00,WUHU21623XXSP,2013-01-28 07:21:00,
2013-01-28 02:23:00,18.0,8.8,30.33,ESE,112,0.0,0.0,67,0.00,,,0.00,WUHU21623XXSP,2013-01-28 07:23:00,
2013-01-28 02:25:00,18.1,9.0,30.33,ESE,112,0.0,0.0,67,0.00,,,0.00,WUHU21623XXSP,2013-01-28 07:25:00,
2013-01-28 02:28:00,18.3,9.1,30.33,ESE,112,0.0,0.0,67,0.00,,,0.00,WUHU21623XXSP,2013-01-28 07:28:00,
2013-01-28 02:30:00,18.3,8.8,30.33,ESE,112,3.6,3.6,66,0.00,,,0.00,WUHU21623XXSP,2013-01-28 07:30:00,
2013-01-28 02:32:00,18.5,8.9,30.33,ESE,112,0.0,3.6,66,0.00,,,0.00,WUHU21623XXSP,2013-01-28 07:32:00,
2013-01-28 02:34:00,18.7,8.4,30.33,SE,135,0.9,3.6,64,0.00,,,0.00,WUHU21623XXSP,2013-01-28 07:34:00,
2013-01-28 02:36:00,19.0,8.7,30.33,SE,135,2.7,3.6,64,0.00,,,0.00,WUHU21623XXSP,2013-01-28 07:36:00,
2013-01-28 02:38:00,19.2,8.9,30.33,SE,135,0.0,3.6,64,0.00,,,0.00,WUHU21623XXSP,2013-01-28 07:38:00,
2013-01-28 02:40:00,19.4,8.7,30.33,SE,135,0.0,2.7,63,0.00,,,0.00,WUHU21623XXSP,2013-01-28 07:40:00,
2013-01-28 02:43:00,19.6,8.9,30.33,SE,135,0.0,2.7,63,0.00,,,0.00,WUHU21623XXSP,2013-01-28 07:43:00,
2013-01-28 02:45:00,19.6,8.6,30.32,ESE,112,2.5,2.7,62,0.00,,,0.00,WUHU21623XXSP,2013-01-28 07:45:00,
2013-01-28 02:47:00,19.6,8.6,30.32,SE,135,2.5,2.5,62,0.00,,,0.00,WUHU21623XXSP,2013-01-28 07:47:00,
2013-01-28 02:50:00,19.6,8.6,30.32,SE,135,2.5,2.5,62,0.00,,,0.00,WUHU21623XXSP,2013-01-28 07:50:00,
2013-01-28 02:52:00,19.8,8.7,30.32,SE,135,1.1,2.5,62,0.00,,,0.00,WUHU21623XXSP,2013-01-28 07:52:00,
2013-01-28 02:53:00,19.9,8.9,30.32,SSE,157,4.0,4.0,62,0.00,,,0.00,WUHU21623XXSP,2013-01-28 07:53:00,
2013-01-28 02:55:00,19.9,8.6,30.32,SSE,157,3.6,4.0,61,0.00,,,0.00,WUHU21623XXSP,2013-01-28 07:55:00,
2013-01-28 02:58:00,19.9,8.6,30.32,SSE,157,2.2,4.0,61,0.00,,,0.00,WUHU21623XXSP,2013-01-28 07:58:00,
2013-01-28 03:00:00,20.1,8.4,30.32,SSE,157,6.0,6.0,60,0.00,,,0.00,WUHU21623XXSP,2013-01-28 08:00:00,
2013-01-28 03:02:00,20.1,8.4,30.32,SSE,157,4.5,6.0,60,0.00,,,0.00,WUHU21623XXSP,2013-01-28 08:02:00,
2013-01-28 03:04:00,20.1,8.4,30.31,SSE,157,5.1,6.0,60,0.00,,,0.00,WUHU21623XXSP,2013-01-28 08:04:00,
2013-01-28 03:06:00,20.3,8.6,30.31,South,180,0.0,6.0,60,0.00,,,0.00,WUHU21623XXSP,2013-01-28 08:06:00,
2013-01-28 03:08:00,20.3,8.6,30.31,South,180,4.3,6.0,60,0.00,,,0.00,WUHU21623XXSP,2013-01-28 08:08:00,
2013-01-28 03:10:00,20.3,8.6,30.31,South,180,2.0,5.1,60,0.00,,,0.00,WUHU21623XXSP,2013-01-28 08:10:00,
2013-01-28 03:12:00,20.3,8.6,30.31,SSE,157,0.9,5.1,60,0.00,,,0.00,WUHU21623XXSP,2013-01-28 08:12:00,
2013-01-28 03:15:00,20.5,8.8,30.31,SSE,157,5.8,5.8,60,0.00,,,0.00,WUHU21623XXSP,2013-01-28 08:15:00,
2013-01-28 03:17:00,20.5,8.8,30.31,South,180,0.0,5.8,60,0.00,,,0.00,WUHU21623XXSP,2013-01-28 08:17:00,
2013-01-28 03:19:00,20.5,8.4,30.31,SSE,157,2.5,5.8,59,0.00,,,0.00,WUHU21623XXSP,2013-01-28 08:19:00,
2013-01-28 03:21:00,20.5,8.8,30.31,SSE,157,2.0,5.8,60,0.00,,,0.00,WUHU21623XXSP,2013-01-28 08:21:00,
2013-01-28 03:23:00,20.5,8.4,30.31,SSE,157,3.4,5.8,59,0.00,,,0.00,WUHU21623XXSP,2013-01-28 08:23:00,
2013-01-28 03:25:00,20.5,8.8,30.31,SSE,157,2.9,3.4,60,0.00,,,0.00,WUHU21623XXSP,2013-01-28 08:25:00,
2013-01-28 03:28:00,20.8,8.7,30.31,SSE,157,0.7,3.4,59,0.00,,,0.00,WUHU21623XXSP,2013-01-28 08:28:00,
2013-01-28 03:30:00,20.7,8.5,30.31,SE,135,2.7,3.4,59,0.00,,,0.00,WUHU21623XXSP,2013-01-28 08:30:00,
2013-01-28 03:32:00,20.8,8.7,30.31,ESE,112,4.5,4.5,59,0.00,,,0.00,WUHU21623XXSP,2013-01-28 08:32:00,
2013-01-28 03:34:00,20.8,8.7,30.31,East,90,3.4,4.5,59,0.00,,,0.00,WUHU21623XXSP,2013-01-28 08:34:00,
2013-01-28 03:36:00,20.8,8.7,30.31,SE,135,0.7,4.5,59,0.00,,,0.00,WUHU21623XXSP,2013-01-28 08:36:00,
2013-01-28 03:38:00,20.8,8.7,30.30,ESE,112,2.0,4.5,59,0.00,,,0.00,WUHU21623XXSP,2013-01-28 08:38:00,
2013-01-28 03:40:00,20.8,8.7,30.30,SE,135,2.7,4.5,59,0.00,,,0.00,WUHU21623XXSP,2013-01-28 08:40:00,
2013-01-28 03:42:00,21.0,8.9,30.30,ESE,112,0.0,3.4,59,0.00,,,0.00,WUHU21623XXSP,2013-01-28 08:42:00,
2013-01-28 03:45:00,21.0,8.9,30.30,SSE,157,0.9,2.7,59,0.00,,,0.00,WUHU21623XXSP,2013-01-28 08:45:00,
2013-01-28 03:47:00,21.0,8.9,30.30,SE,135,6.5,6.5,59,0.00,,,0.00,WUHU21623XXSP,2013-01-28 08:47:00,
2013-01-28 03:52:00,21.0,8.9,30.30,SE,135,6.5,6.5,59,0.00,,,0.00,WUHU21623XXSP,2013-01-28 08:52:00,
2013-01-28 03:54:00,21.0,8.5,30.30,SE,135,4.7,6.5,58,0.00,,,0.00,WUHU21623XXSP,2013-01-28 08:54:00,
2013-01-28 03:55:00,21.0,8.5,30.30,SE,135,2.0,6.5,58,0.00,,,0.00,WUHU21623XXSP,2013-01-28 08:55:00,
2013-01-28 03:58:00,21.4,8.8,30.30,SSE,157,3.6,6.5,58,0.00,,,0.00,WUHU21623XXSP,2013-01-28 08:58:00,
2013-01-28 04:00:00,21.4,8.8,30.29,SE,135,1.8,6.5,58,0.00,,,0.00,WUHU21623XXSP,2013-01-28 09:00:00,
2013-01-28 04:02:00,21.4,8.4,30.29,SE,135,4.3,4.7,57,0.00,,,0.00,WUHU21623XXSP,2013-01-28 09:02:00,
2013-01-28 04:04:00,21.4,9.2,30.29,SE,135,2.9,4.7,59,0.00,,,0.00,WUHU21623XXSP,2013-01-28 09:04:00,
2013-01-28 04:06:00,21.4,8.8,30.29,SSE,157,1.8,4.3,58,0.00,,,0.00,WUHU21623XXSP,2013-01-28 09:06:00,
2013-01-28 04:08:00,21.4,8.8,30.29,SE,135,0.0,4.3,58,0.00,,,0.00,WUHU21623XXSP,2013-01-28 09:08:00,
2013-01-28 04:10:00,21.4,8.8,30.29,SSE,157,2.7,4.3,58,0.00,,,0.00,WUHU21623XXSP,2013-01-28 09:10:00,
2013-01-28 04:12:00,21.4,8.8,30.29,SE,135,0.0,2.9,58,0.00,,,0.00,WUHU21623XXSP,2013-01-28 09:12:00,
2013-01-28 04:15:00,21.4,9.2,30.29,SSE,157,5.8,5.8,59,0.00,,,0.00,WUHU21623XXSP,2013-01-28 09:15:00,
2013-01-28 04:17:00,21.4,8.8,30.29,South,180,2.0,5.8,58,0.00,,,0.00,WUHU21623XXSP,2013-01-28 09:17:00,
2013-01-28 04:19:00,21.4,8.8,30.28,ENE,67,6.3,6.3,58,0.00,,,0.00,WUHU21623XXSP,2013-01-28 09:19:00,
2013-01-28 04:21:00,21.4,9.2,30.28,SSE,157,2.2,6.3,59,0.00,,,0.00,WUHU21623XXSP,2013-01-28 09:21:00,
2013-01-28 04:23:00,21.4,8.8,30.28,ESE,112,1.3,6.3,58,0.00,,,0.00,WUHU21623XXSP,2013-01-28 09:23:00,
2013-01-28 04:25:00,21.4,8.8,30.28,ESE,112,3.6,6.3,58,0.00,,,0.00,WUHU21623XXSP,2013-01-28 09:25:00,
2013-01-28 04:27:00,21.4,9.2,30.27,SE,135,2.5,6.3,59,0.00,,,0.00,WUHU21623XXSP,2013-01-28 09:27:00,
2013-01-28 04:30:00,21.6,9.0,30.27,ESE,112,6.7,6.7,58,0.00,,,0.00,WUHU21623XXSP,2013-01-28 09:30:00,
2013-01-28 04:32:00,21.6,9.0,30.27,SE,135,2.2,6.7,58,0.00,,,0.00,WUHU21623XXSP,2013-01-28 09:32:00,
2013-01-28 04:34:00,21.6,9.0,30.28,ESE,112,0.4,6.7,58,0.00,,,0.00,WUHU21623XXSP,2013-01-28 09:34:00,
2013-01-28 04:36:00,21.6,9.4,30.27,SE,135,2.7,6.7,59,0.00,,,0.00,WUHU21623XXSP,2013-01-28 09:36:00,
2013-01-28 04:38:00,21.7,9.6,30.27,SE,135,4.7,6.7,59,0.00,,,0.00,WUHU21623XXSP,2013-01-28 09:38:00,
2013-01-28 04:40:00,21.7,9.2,30.27,SE,135,7.2,7.2,58,0.00,,,0.00,WUHU21623XXSP,2013-01-28 09:40:00,
2013-01-28 04:42:00,21.7,9.2,30.27,SSE,157,4.5,7.2,58,0.00,,,0.00,WUHU21623XXSP,2013-01-28 09:42:00,
2013-01-28 04:45:00,21.7,9.6,30.27,SE,135,3.8,7.2,59,0.00,,,0.00,WUHU21623XXSP,2013-01-28 09:45:00,
2013-01-28 04:47:00,21.7,9.6,30.27,SSE,157,2.9,7.2,59,0.00,,,0.00,WUHU21623XXSP,2013-01-28 09:47:00,
2013-01-28 04:56:00,21.7,9.6,30.27,SSE,157,2.9,2.9,59,0.00,,,0.00,WUHU21623XXSP,2013-01-28 09:56:00,
2013-01-28 04:58:00,21.9,9.3,30.26,SSE,157,0.0,2.9,58,0.00,,,0.00,WUHU21623XXSP,2013-01-28 09:58:00,
2013-01-28 05:00:00,21.9,9.7,30.26,SSE,157,6.0,6.0,59,0.00,,,0.00,WUHU21623XXSP,2013-01-28 10:00:00,
2013-01-28 05:02:00,21.9,9.7,30.26,East,90,4.9,6.0,59,0.00,,,0.00,WUHU21623XXSP,2013-01-28 10:02:00,
2013-01-28 05:04:00,21.9,9.7,30.26,ESE,112,3.4,6.0,59,0.00,,,0.00,WUHU21623XXSP,2013-01-28 10:04:00,
2013-01-28 05:06:00,21.9,9.7,30.27,SE,135,3.4,6.0,59,0.00,,,0.00,WUHU21623XXSP,2013-01-28 10:06:00,
2013-01-28 05:08:00,21.9,9.7,30.26,SSE,157,7.2,7.2,59,0.00,,,0.00,WUHU21623XXSP,2013-01-28 10:08:00,
2013-01-28 05:10:00,21.9,9.7,30.27,SSE,157,6.7,7.2,59,0.00,,,0.00,WUHU21623XXSP,2013-01-28 10:10:00,
2013-01-28 05:12:00,21.9,9.7,30.26,SSE,157,0.0,7.2,59,0.00,,,0.00,WUHU21623XXSP,2013-01-28 10:12:00,
2013-01-28 05:15:00,21.9,9.7,30.26,SE,135,2.5,7.2,59,0.00,,,0.00,WUHU21623XXSP,2013-01-28 10:15:00,
2013-01-28 05:17:00,21.9,9.7,30.26,SSE,157,2.0,7.2,59,0.00,,,0.00,WUHU21623XXSP,2013-01-28 10:17:00,
2013-01-28 05:19:00,21.9,9.7,30.26,SSE,157,5.1,6.7,59,0.00,,,0.00,WUHU21623XXSP,2013-01-28 10:19:00,
2013-01-28 05:21:00,21.9,9.7,30.26,ESE,112,1.8,5.1,59,0.00,,,0.00,WUHU21623XXSP,2013-01-28 10:21:00,
2013-01-28 05:23:00,21.9,9.7,30.26,SSE,157,6.9,6.9,59,0.00,,,0.00,WUHU21623XXSP,2013-01-28 10:23:00,
2013-01-28 05:25:00,21.9,9.7,30.26,SSE,157,2.2,6.9,59,0.00,,,0.00,WUHU21623XXSP,2013-01-28 10:25:00,
2013-01-28 05:27:00,21.9,10.1,30.26,SSE,157,2.5,6.9,60,0.00,,,0.00,WUHU21623XXSP,2013-01-28 10:27:00,
2013-01-28 05:29:00,21.9,9.7,30.26,SE,135,0.0,6.9,59,0.00,,,0.00,WUHU21623XXSP,2013-01-28 10:29:00,
2013-01-28 05:32:00,21.9,9.7,30.27,SSE,157,1.1,6.9,59,0.00,,,0.00,WUHU21623XXSP,2013-01-28 10:32:00,
2013-01-28 05:34:00,21.9,9.7,30.27,SSE,157,5.4,5.4,59,0.00,,,0.00,WUHU21623XXSP,2013-01-28 10:34:00,
2013-01-28 05:36:00,21.9,9.3,30.27,East,90,6.9,6.9,58,0.00,,,0.00,WUHU21623XXSP,2013-01-28 10:36:00,
2013-01-28 05:38:00,21.9,9.7,30.27,SE,135,1.8,6.9,59,0.00,,,0.00,WUHU21623XXSP,2013-01-28 10:38:00,
2013-01-28 05:40:00,21.7,9.6,30.26,SE,135,5.1,6.9,59,0.00,,,0.00,WUHU21623XXSP,2013-01-28 10:40:00,
2013-01-28 05:42:00,21.7,9.6,30.26,SSE,157,0.0,6.9,59,0.00,,,0.00,WUHU21623XXSP,2013-01-28 10:42:00,
2013-01-28 05:44:00,21.7,10.0,30.26,South,180,8.5,8.5,60,0.00,,,0.00,WUHU21623XXSP,2013-01-28 10:44:00,
2013-01-28 05:47:00,21.7,10.0,30.26,South,180,7.8,8.5,60,0.00,,,0.00,WUHU21623XXSP,2013-01-28 10:47:00,
2013-01-28 05:50:00,21.7,10.0,30.26,South,180,7.8,8.5,60,0.00,,,0.00,WUHU21623XXSP,2013-01-28 10:50:00,
2013-01-28 05:52:00,21.7,9.6,30.26,SSE,157,6.0,8.5,59,0.00,,,0.00,WUHU21623XXSP,2013-01-28 10:52:00,
2013-01-28 05:53:00,21.7,10.0,30.26,SSE,157,8.3,8.5,60,0.00,,,0.00,WUHU21623XXSP,2013-01-28 10:53:00,
2013-01-28 05:55:00,21.7,9.6,30.26,ESE,112,2.2,8.3,59,0.00,,,0.00,WUHU21623XXSP,2013-01-28 10:55:00,
2013-01-28 05:57:00,21.7,10.0,30.26,SSE,157,4.9,8.3,60,0.00,,,0.00,WUHU21623XXSP,2013-01-28 10:57:00,
2013-01-28 05:59:00,21.7,10.0,30.26,ESE,112,0.0,8.3,60,0.00,,,0.00,WUHU21623XXSP,2013-01-28 10:59:00,
2013-01-28 06:02:00,21.7,10.0,30.26,SSE,157,0.0,8.3,60,0.00,,,0.00,WUHU21623XXSP,2013-01-28 11:02:00,
2013-01-28 06:04:00,21.7,10.0,30.26,SE,135,4.5,4.9,60,0.00,,,0.00,WUHU21623XXSP,2013-01-28 11:04:00,
2013-01-28 06:06:00,21.9,10.1,30.26,East,90,4.3,4.9,60,0.00,,,0.00,WUHU21623XXSP,2013-01-28 11:06:00,
2013-01-28 06:08:00,21.9,9.7,30.26,ESE,112,0.0,4.5,59,0.00,,,0.00,WUHU21623XXSP,2013-01-28 11:08:00,
2013-01-28 06:10:00,21.9,10.1,30.26,SSE,157,0.0,4.5,60,0.00,,,0.00,WUHU21623XXSP,2013-01-28 11:10:00,
2013-01-28 06:12:00,21.9,9.7,30.26,SE,135,0.0,4.5,59,0.00,,,0.00,WUHU21623XXSP,2013-01-28 11:12:00,
2013-01-28 06:14:00,21.9,9.7,30.26,SE,135,2.0,4.3,59,0.00,,,0.00,WUHU21623XXSP,2013-01-28 11:14:00,
2013-01-28 06:17:00,22.1,9.9,30.26,SE,135,1.8,2.0,59,0.00,,,0.00,WUHU21623XXSP,2013-01-28 11:17:00,
2013-01-28 06:19:00,22.1,9.5,30.26,East,90,4.3,4.3,58,0.00,,,0.00,WUHU21623XXSP,2013-01-28 11:19:00,
2013-01-28 06:21:00,22.1,9.9,30.26,SE,135,0.0,4.3,59,0.00,,,0.00,WUHU21623XXSP,2013-01-28 11:21:00,
2013-01-28 06:23:00,22.1,9.9,30.26,SSE,157,5.6,5.6,59,0.00,,,0.00,WUHU21623XXSP,2013-01-28 11:23:00,
2013-01-28 06:25:00,22.1,9.9,30.26,ESE,112,6.0,6.0,59,0.00,,,0.00,WUHU21623XXSP,2013-01-28 11:25:00,
2013-01-28 06:27:00,22.1,9.5,30.26,ESE,112,7.2,7.2,58,0.00,,,0.00,WUHU21623XXSP,2013-01-28 11:27:00,
2013-01-28 06:29:00,22.1,9.5,30.26,ESE,112,5.8,7.2,58,0.00,,,0.00,WUHU21623XXSP,2013-01-28 11:29:00,
2013-01-28 06:32:00,22.3,10.1,30.26,SSE,157,4.0,7.2,59,0.00,,,0.00,WUHU21623XXSP,2013-01-28 11:32:00,
2013-01-28 06:34:00,22.3,10.1,30.26,SSE,157,0.0,7.2,59,0.00,,,0.00,WUHU21623XXSP,2013-01-28 11:34:00,
2013-01-28 06:36:00,22.3,9.7,30.26,SE,135,5.8,7.2,58,0.00,,,0.00,WUHU21623XXSP,2013-01-28 11:36:00,
2013-01-28 06:38:00,22.3,10.1,30.26,SSE,157,0.0,5.8,59,0.00,,,0.00,WUHU21623XXSP,2013-01-28 11:38:00,
2013-01-28 06:40:00,22.3,10.1,30.26,SE,135,8.3,8.3,59,0.00,,,0.00,WUHU21623XXSP,2013-01-28 11:40:00,
2013-01-28 06:42:00,22.3,10.1,30.26,SE,135,4.5,8.3,59,0.00,,,0.00,WUHU21623XXSP,2013-01-28 11:42:00,
2013-01-28 06:44:00,22.3,10.1,30.25,SSE,157,4.3,8.3,59,0.00,,,0.00,WUHU21623XXSP,2013-01-28 11:44:00,
2013-01-28 06:47:00,22.1,9.9,30.25,SE,135,0.0,8.3,59,0.00,,,0.00,WUHU21623XXSP,2013-01-28 11:47:00,
2013-01-28 06:49:00,22.3,10.1,30.25,SSE,157,0.4,8.3,59,0.00,,,0.00,WUHU21623XXSP,2013-01-28 11:49:00,
2013-01-28 06:51:00,22.3,10.1,30.25,SSE,157,0.0,4.5,59,0.00,,,0.00,WUHU21623XXSP,2013-01-28 11:51:00,
2013-01-28 06:53:00,22.3,10.1,30.25,ESE,112,6.9,6.9,59,0.00,,,0.00,WUHU21623XXSP,2013-01-28 11:53:00,
2013-01-28 06:55:00,22.1,9.9,30.25,SE,135,5.1,6.9,59,0.00,,,0.00,WUHU21623XXSP,2013-01-28 11:55:00,
2013-01-28 06:57:00,22.1,9.9,30.25,SE,135,2.0,6.9,59,0.00,,,0.00,WUHU21623XXSP,2013-01-28 11:57:00,
2013-01-28 06:59:00,21.9,9.7,30.24,SSE,157,2.2,6.9,59,0.00,,,0.00,WUHU21623XXSP,2013-01-28 11:59:00,
2013-01-28 07:02:00,21.9,9.7,30.25,SSE,157,0.7,6.9,59,0.00,,,0.00,WUHU21623XXSP,2013-01-28 12:02:00,
2013-01-28 07:04:00,21.9,10.1,30.24,ESE,112,1.3,5.1,60,0.00,,,0.00,WUHU21623XXSP,2013-01-28 12:04:00,
2013-01-28 07:06:00,21.9,10.1,30.25,ESE,112,1.3,2.2,60,0.00,,,0.00,WUHU21623XXSP,2013-01-28 12:06:00,
2013-01-28 07:08:00,21.9,10.1,30.24,ESE,112,1.3,2.2,60,0.00,,,0.00,WUHU21623XXSP,2013-01-28 12:08:00,
2013-01-28 07:10:00,21.9,10.1,30.25,SSE,157,2.0,2.0,60,0.00,,,0.00,WUHU21623XXSP,2013-01-28 12:10:00,
2013-01-28 07:12:00,21.9,9.7,30.24,SE,135,0.9,2.0,59,0.00,,,0.00,WUHU21623XXSP,2013-01-28 12:12:00,
2013-01-28 07:14:00,21.9,9.7,30.24,SE,135,0.0,2.0,59,0.00,,,0.00,WUHU21623XXSP,2013-01-28 12:14:00,
2013-01-28 07:16:00,21.9,10.1,30.24,SSE,157,0.0,2.0,60,0.00,,,0.00,WUHU21623XXSP,2013-01-28 12:16:00,
2013-01-28 07:19:00,21.9,9.7,30.24,ESE,112,5.4,5.4,59,0.00,,,0.00,WUHU21623XXSP,2013-01-28 12:19:00,
2013-01-28 07:21:00,21.9,9.7,30.23,ESE,112,2.7,5.4,59,0.00,,,0.00,WUHU21623XXSP,2013-01-28 12:21:00,
2013-01-28 07:23:00,21.9,9.7,30.23,SE,135,0.0,5.4,59,0.00,,,0.00,WUHU21623XXSP,2013-01-28 12:23:00,
2013-01-28 07:25:00,22.1,10.3,30.23,ESE,112,3.4,5.4,60,0.00,,,0.00,WUHU21623XXSP,2013-01-28 12:25:00,
2013-01-28 07:27:00,22.3,10.1,30.23,ESE,112,4.0,5.4,59,0.00,,,0.00,WUHU21623XXSP,2013-01-28 12:27:00,
2013-01-28 07:29:00,22.3,10.1,30.22,SSE,157,3.4,4.0,59,0.00,,,0.00,WUHU21623XXSP,2013-01-28 12:29:00,
2013-01-28 07:32:00,22.5,10.2,30.22,SE,135,1.3,4.0,59,0.00,,,0.00,WUHU21623XXSP,2013-01-28 12:32:00,
2013-01-28 07:34:00,22.6,10.8,30.22,ESE,112,5.8,5.8,60,0.00,,,0.00,WUHU21623XXSP,2013-01-28 12:34:00,
2013-01-28 07:36:00,22.6,10.4,30.22,SE,135,3.8,5.8,59,0.00,,,0.00,WUHU21623XXSP,2013-01-28 12:36:00,
2013-01-28 07:38:00,22.8,10.5,30.21,SSE,157,3.8,5.8,59,0.00,,,0.00,WUHU21623XXSP,2013-01-28 12:38:00,
2013-01-28 07:40:00,22.8,10.5,30.21,South,180,5.4,5.8,59,0.00,,,0.00,WUHU21623XXSP,2013-01-28 12:40:00,
2013-01-28 07:42:00,22.8,10.5,30.21,SE,135,2.9,5.8,59,0.00,,,0.00,WUHU21623XXSP,2013-01-28 12:42:00,
2013-01-28 07:44:00,22.8,10.5,30.21,ESE,112,2.9,5.4,59,0.00,,,0.00,WUHU21623XXSP,2013-01-28 12:44:00,
2013-01-28 07:46:00,22.8,10.5,30.21,SE,135,4.9,5.4,59,0.00,,,0.00,WUHU21623XXSP,2013-01-28 12:46:00,
2013-01-28 07:49:00,22.8,10.5,30.21,South,180,9.4,9.4,59,0.00,,,0.00,WUHU21623XXSP,2013-01-28 12:49:00,
2013-01-28 07:51:00,22.8,10.5,30.21,ESE,112,6.5,9.4,59,0.00,,,0.00,WUHU21623XXSP,2013-01-28 12:51:00,
2013-01-28 07:53:00,22.8,10.1,30.21,SE,135,2.7,9.4,58,0.00,,,0.00,WUHU21623XXSP,2013-01-28 12:53:00,
2013-01-28 07:55:00,22.8,10.1,30.21,SE,135,6.3,9.4,58,0.00,,,0.00,WUHU21623XXSP,2013-01-28 12:55:00,
2013-01-28 07:57:00,22.8,10.5,30.21,SE,135,2.7,9.4,59,0.00,,,0.00,WUHU21623XXSP,2013-01-28 12:57:00,
2013-01-28 07:59:00,22.8,11.0,30.21,SE,135,2.9,6.5,60,0.00,,,0.00,WUHU21623XXSP,2013-01-28 12:59:00,
2013-01-28 08:02:00,22.8,10.5,30.21,SSE,157,3.4,6.3,59,0.00,,,0.00,WUHU21623XXSP,2013-01-28 13:02:00,
2013-01-28 08:04:00,22.8,10.5,30.21,SSE,157,2.5,6.3,59,0.00,,,0.00,WUHU21623XXSP,2013-01-28 13:04:00,
2013-01-28 08:06:00,22.8,10.5,30.20,SSE,157,1.8,3.4,59,0.00,,,0.00,WUHU21623XXSP,2013-01-28 13:06:00,
2013-01-28 08:08:00,22.8,10.5,30.20,SE,135,7.6,7.6,59,0.00,,,0.00,WUHU21623XXSP,2013-01-28 13:08:00,
2013-01-28 08:10:00,22.8,10.1,30.20,SE,135,10.5,10.5,58,0.00,,,0.00,WUHU21623XXSP,2013-01-28 13:10:00,
2013-01-28 08:12:00,22.8,10.5,30.21,SE,135,6.5,10.5,59,0.00,,,0.00,WUHU21623XXSP,2013-01-28 13:12:00,
2013-01-28 08:14:00,22.8,10.5,30.20,SSE,157,7.6,10.5,59,0.00,,,0.00,WUHU21623XXSP,2013-01-28 13:14:00,
2013-01-28 08:16:00,22.8,10.1,30.20,ESE,112,5.1,10.5,58,0.00,,,0.00,WUHU21623XXSP,2013-01-28 13:16:00,
2013-01-28 08:19:00,22.8,10.5,30.20,ESE,112,3.4,10.5,59,0.00,,,0.00,WUHU21623XXSP,2013-01-28 13:19:00,
2013-01-28 08:21:00,22.8,10.1,30.20,South,180,2.2,7.6,58,0.00,,,0.00,WUHU21623XXSP,2013-01-28 13:21:00,
2013-01-28 08:23:00,22.8,10.1,30.20,SSE,157,10.7,10.7,58,0.00,,,0.00,WUHU21623XXSP,2013-01-28 13:23:00,
2013-01-28 08:25:00,22.8,10.1,30.20,ESE,112,6.9,10.7,58,0.00,,,0.00,WUHU21623XXSP,2013-01-28 13:25:00,
2013-01-28 08:27:00,22.6,9.6,30.20,SE,135,8.1,10.7,57,0.00,,,0.00,WUHU21623XXSP,2013-01-28 13:27:00,
2013-01-28 08:29:00,22.6,10.0,30.19,SE,135,4.5,10.7,58,0.00,,,0.00,WUHU21623XXSP,2013-01-28 13:29:00,
2013-01-28 08:31:00,22.8,10.1,30.19,ESE,112,5.1,10.7,58,0.00,,,0.00,WUHU21623XXSP,2013-01-28 13:31:00,
2013-01-28 08:34:00,22.8,10.1,30.19,SE,135,0.7,8.1,58,0.00,,,0.00,WUHU21623XXSP,2013-01-28 13:34:00,
2013-01-28 08:36:00,22.8,10.1,30.19,SE,135,11.6,11.6,58,0.00,,,0.00,WUHU21623XXSP,2013-01-28 13:36:00,
2013-01-28 08:38:00,22.8,9.8,30.19,SSW,202,5.8,11.6,57,0.00,,,0.00,WUHU21623XXSP,2013-01-28 13:38:00,
2013-01-28 08:40:00,22.8,9.8,30.18,SSE,157,6.0,11.6,57,0.00,,,0.00,WUHU21623XXSP,2013-01-28 13:40:00,
2013-01-28 08:42:00,22.8,10.1,30.19,ESE,112,2.0,11.6,58,0.00,,,0.00,WUHU21623XXSP,2013-01-28 13:42:00,
2013-01-28 08:44:00,22.8,9.8,30.18,SE,135,4.3,11.6,57,0.00,,,0.00,WUHU21623XXSP,2013-01-28 13:44:00,
2013-01-28 08:46:00,23.0,10.3,30.18,ESE,112,3.6,6.0,58,0.00,,,0.00,WUHU21623XXSP,2013-01-28 13:46:00,
2013-01-28 08:49:00,23.2,10.5,30.18,SSE,157,7.2,7.2,58,0.00,,,0.00,WUHU21623XXSP,2013-01-28 13:49:00,
2013-01-28 08:51:00,23.2,10.5,30.18,SSE,157,0.0,7.2,58,0.00,,,0.00,WUHU21623XXSP,2013-01-28 13:51:00,
2013-01-28 08:53:00,23.2,10.1,30.18,SE,135,4.9,7.2,57,0.00,,,0.00,WUHU21623XXSP,2013-01-28 13:53:00,
2013-01-28 08:55:00,23.2,10.5,30.18,SE,135,5.6,7.2,58,0.00,,,0.00,WUHU21623XXSP,2013-01-28 13:55:00,
2013-01-28 08:57:00,23.2,9.7,30.18,SSE,157,6.9,7.2,56,0.00,,,0.00,WUHU21623XXSP,2013-01-28 13:57:00,
2013-01-28 08:59:00,23.0,9.9,30.19,SSE,157,10.3,10.3,57,0.00,,,0.00,WUHU21623XXSP,2013-01-28 13:59:00,
2013-01-28 09:01:00,22.8,9.8,30.18,South,180,7.8,10.3,57,0.00,,,0.00,WUHU21623XXSP,2013-01-28 14:01:00,
2013-01-28 09:03:00,22.8,10.1,30.18,SSE,157,11.2,11.2,58,0.00,,,0.00,WUHU21623XXSP,2013-01-28 14:03:00,
2013-01-28 09:06:00,22.8,10.5,30.18,SSE,157,9.8,11.2,59,0.00,,,0.00,WUHU21623XXSP,2013-01-28 14:06:00,
2013-01-28 09:08:00,22.6,10.8,30.18,SSE,157,7.4,11.2,60,0.00,,,0.00,WUHU21623XXSP,2013-01-28 14:08:00,
2013-01-28 09:10:00,22.6,10.8,30.18,SSE,157,12.8,12.8,60,0.00,,,0.00,WUHU21623XXSP,2013-01-28 14:10:00,
2013-01-28 09:12:00,22.6,11.1,30.18,SE,135,6.3,12.8,61,0.00,,,0.00,WUHU21623XXSP,2013-01-28 14:12:00,
2013-01-28 09:14:00,22.6,10.8,30.17,South,180,6.3,12.8,60,0.00,,,0.00,WUHU21623XXSP,2013-01-28 14:14:00,
2013-01-28 09:16:00,22.5,11.3,30.17,SSE,157,7.8,12.8,62,0.00,,,0.00,WUHU21623XXSP,2013-01-28 14:16:00,
2013-01-28 09:18:00,22.3,11.2,30.17,SSE,157,6.7,12.8,62,0.00,,,0.00,WUHU21623XXSP,2013-01-28 14:18:00,
2013-01-28 09:21:00,22.1,12.4,30.17,SSE,157,5.6,7.8,66,0.00,,,0.00,WUHU21623XXSP,2013-01-28 14:21:00,
2013-01-28 09:23:00,22.1,12.4,30.17,SSE,157,10.5,10.5,66,0.00,,,0.00,WUHU21623XXSP,2013-01-28 14:23:00,
2013-01-28 09:25:00,21.9,12.6,30.17,SSE,157,2.2,10.5,67,0.00,,,0.00,WUHU21623XXSP,2013-01-28 14:25:00,
2013-01-28 09:27:00,21.9,12.9,30.17,SE,135,3.8,10.5,68,0.00,,,0.00,WUHU21623XXSP,2013-01-28 14:27:00,
2013-01-28 09:29:00,21.9,13.3,30.16,SSE,157,6.3,10.5,69,0.00,,,0.00,WUHU21623XXSP,2013-01-28 14:29:00,
2013-01-28 09:31:00,21.9,13.6,30.16,SE,135,7.8,10.5,70,0.00,,,0.00,WUHU21623XXSP,2013-01-28 14:31:00,
2013-01-28 09:34:00,21.9,13.6,30.16,SE,135,3.4,7.8,70,0.00,,,0.00,WUHU21623XXSP,2013-01-28 14:34:00,
2013-01-28 09:36:00,21.9,14.3,30.16,South,180,3.8,7.8,72,0.00,,,0.00,WUHU21623XXSP,2013-01-28 14:36:00,
2013-01-28 09:38:00,21.9,14.3,30.16,SSE,157,2.7,7.8,72,0.00,,,0.00,WUHU21623XXSP,2013-01-28 14:38:00,
2013-01-28 09:40:00,21.6,14.2,30.16,SE,135,5.4,7.8,73,0.00,,,0.00,WUHU21623XXSP,2013-01-28 14:40:00,
2013-01-28 09:42:00,21.4,14.3,30.16,SSE,157,12.5,12.5,74,0.00,,,0.00,WUHU21623XXSP,2013-01-28 14:42:00,
2013-01-28 09:44:00,21.4,14.9,30.16,South,180,4.9,12.5,76,0.00,,,0.00,WUHU21623XXSP,2013-01-28 14:44:00,
2013-01-28 09:46:00,21.2,14.8,30.16,SE,135,6.9,12.5,76,0.00,,,0.00,WUHU21623XXSP,2013-01-28 14:46:00,
2013-01-28 09:48:00,21.0,14.9,30.15,SSE,157,7.2,12.5,77,0.00,,,0.00,WUHU21623XXSP,2013-01-28 14:48:00,
2013-01-28 09:51:00,21.0,15.2,30.16,SSE,157,11.6,12.5,78,0.00,,,0.00,WUHU21623XXSP,2013-01-28 14:51:00,
2013-01-28 09:53:00,21.0,15.2,30.15,SE,135,7.8,11.6,78,0.00,,,0.00,WUHU21623XXSP,2013-01-28 14:53:00,
2013-01-28 09:55:00,21.0,15.2,30.14,SE,135,2.7,11.6,78,0.00,,,0.00,WUHU21623XXSP,2013-01-28 14:55:00,
2013-01-28 09:57:00,21.0,15.5,30.15,East,90,7.6,11.6,79,0.00,,,0.00,WUHU21623XXSP,2013-01-28 14:57:00,
2013-01-28 09:59:00,21.0,15.5,30.15,SSE,157,8.1,11.6,79,0.00,,,0.00,WUHU21623XXSP,2013-01-28 14:59:00,
2013-01-28 10:01:00,21.0,15.5,30.15,SE,135,6.3,8.1,79,0.00,,,0.00,WUHU21623XXSP,2013-01-28 15:01:00,
2013-01-28 10:03:00,21.0,15.8,30.15,SE,135,1.6,8.1,80,0.00,,,0.00,WUHU21623XXSP,2013-01-28 15:03:00,
2013-01-28 10:06:00,21.0,15.8,30.15,SSE,157,9.2,9.2,80,0.00,,,0.00,WUHU21623XXSP,2013-01-28 15:06:00,
2013-01-28 10:08:00,21.0,16.1,30.15,SE,135,8.3,9.2,81,0.00,,,0.00,WUHU21623XXSP,2013-01-28 15:08:00,
2013-01-28 10:10:00,21.0,16.1,30.15,SSE,157,1.1,9.2,81,0.00,,,0.00,WUHU21623XXSP,2013-01-28 15:10:00,
2013-01-28 10:12:00,21.0,16.3,30.14,ESE,112,6.9,9.2,82,0.00,,,0.00,WUHU21623XXSP,2013-01-28 15:12:00,
2013-01-28 10:14:00,21.0,16.3,30.14,SSE,157,2.2,9.2,82,0.00,,,0.00,WUHU21623XXSP,2013-01-28 15:14:00,
2013-01-28 10:16:00,21.0,16.3,30.14,East,90,4.7,8.3,82,0.00,,,0.00,WUHU21623XXSP,2013-01-28 15:16:00,
2013-01-28 10:18:00,21.4,16.7,30.13,SSE,157,4.5,6.9,82,0.00,,,0.00,WUHU21623XXSP,2013-01-28 15:18:00,
2013-01-28 10:21:00,21.4,16.7,30.13,SE,135,3.1,6.9,82,0.00,,,0.00,WUHU21623XXSP,2013-01-28 15:21:00,
2013-01-28 10:23:00,21.4,16.7,30.13,SE,135,6.7,6.7,82,0.00,,,0.00,WUHU21623XXSP,2013-01-28 15:23:00,
2013-01-28 10:25:00,21.6,16.9,30.13,ESE,112,2.9,6.7,82,0.00,,,0.00,WUHU21623XXSP,2013-01-28 15:25:00,
2013-01-28 10:27:00,21.7,17.3,30.13,SSE,157,6.3,6.7,83,0.00,,,0.00,WUHU21623XXSP,2013-01-28 15:27:00,
2013-01-28 10:29:00,21.6,16.9,30.13,ESE,112,8.1,8.1,82,0.00,,,0.00,WUHU21623XXSP,2013-01-28 15:29:00,
2013-01-28 10:31:00,21.6,16.9,30.13,SE,135,4.7,8.1,82,0.00,,,0.00,WUHU21623XXSP,2013-01-28 15:31:00,
2013-01-28 10:33:00,21.6,17.1,30.13,SSE,157,2.5,8.1,83,0.00,,,0.00,WUHU21623XXSP,2013-01-28 15:33:00,
2013-01-28 10:35:00,21.6,17.1,30.13,ESE,112,8.1,8.1,83,0.00,,,0.00,WUHU21623XXSP,2013-01-28 15:35:00,
2013-01-28 10:38:00,21.6,17.1,30.13,SSE,157,5.8,8.1,83,0.00,,,0.00,WUHU21623XXSP,2013-01-28 15:38:00,
2013-01-28 10:40:00,21.6,17.1,30.13,SSE,157,6.3,8.1,83,0.00,,,0.00,WUHU21623XXSP,2013-01-28 15:40:00,
2013-01-28 10:42:00,21.7,17.3,30.12,ESE,112,2.5,8.1,83,0.00,,,0.00,WUHU21623XXSP,2013-01-28 15:42:00,
2013-01-28 10:44:00,21.7,17.3,30.12,SE,135,2.9,8.1,83,0.00,,,0.00,WUHU21623XXSP,2013-01-28 15:44:00,
2013-01-28 10:46:00,21.7,17.3,30.11,SSE,157,7.8,7.8,83,0.00,,,0.00,WUHU21623XXSP,2013-01-28 15:46:00,
2013-01-28 10:48:00,21.7,17.3,30.11,SE,135,5.6,7.8,83,0.00,,,0.00,WUHU21623XXSP,2013-01-28 15:48:00,
2013-01-28 10:50:00,21.7,17.3,30.11,SSE,157,7.4,7.8,83,0.00,,,0.00,WUHU21623XXSP,2013-01-28 15:50:00,
2013-01-28 10:53:00,21.9,17.5,30.11,SSE,157,5.8,7.8,83,0.00,,,0.00,WUHU21623XXSP,2013-01-28 15:53:00,
2013-01-28 10:55:00,21.9,17.5,30.11,SE,135,5.1,7.8,83,0.00,,,0.00,WUHU21623XXSP,2013-01-28 15:55:00,
2013-01-28 10:57:00,21.9,17.5,30.11,SE,135,4.9,7.4,83,0.00,,,0.00,WUHU21623XXSP,2013-01-28 15:57:00,
2013-01-28 10:59:00,22.1,17.7,30.11,SSE,157,7.4,7.4,83,0.00,,,0.00,WUHU21623XXSP,2013-01-28 15:59:00,
2013-01-28 11:01:00,22.1,17.7,30.11,SSE,157,10.5,10.5,83,0.00,,,0.00,WUHU21623XXSP,2013-01-28 16:01:00,
2013-01-28 11:03:00,22.1,17.7,30.11,SSE,157,3.4,10.5,83,0.00,,,0.00,WUHU21623XXSP,2013-01-28 16:03:00,
2013-01-28 11:05:00,22.1,17.7,30.10,SE,135,2.0,10.5,83,0.00,,,0.00,WUHU21623XXSP,2013-01-28 16:05:00,
2013-01-28 11:08:00,22.1,17.7,30.10,SSE,157,5.1,10.5,83,0.00,,,0.00,WUHU21623XXSP,2013-01-28 16:08:00,
2013-01-28 11:10:00,22.1,17.7,30.10,South,180,1.8,10.5,83,0.00,,,0.00,WUHU21623XXSP,2013-01-28 16:10:00,
2013-01-28 11:12:00,21.9,17.2,30.09,East,90,6.9,6.9,82,0.00,,,0.00,WUHU21623XXSP,2013-01-28 16:12:00,
2013-01-28 11:14:00,21.9,17.2,30.09,South,180,7.6,7.6,82,0.00,,,0.00,WUHU21623XXSP,2013-01-28 16:14:00,
2013-01-28 11:16:00,21.9,17.2,30.09,SSE,157,7.6,7.6,82,0.00,,,0.00,WUHU21623XXSP,2013-01-28 16:16:00,
2013-01-28 11:18:00,21.7,17.1,30.09,SSE,157,7.6,7.6,82,0.00,,,0.00,WUHU21623XXSP,2013-01-28 16:18:00,
2013-01-28 11:20:00,21.6,16.9,30.08,East,90,12.1,12.1,82,0.00,,,0.00,WUHU21623XXSP,2013-01-28 16:20:00,
2013-01-28 11:23:00,21.4,16.7,30.08,SSE,157,9.6,12.1,82,0.00,,,0.00,WUHU21623XXSP,2013-01-28 16:23:00,
2013-01-28 11:25:00,21.4,16.7,30.07,ESE,112,11.9,12.1,82,0.00,,,0.00,WUHU21623XXSP,2013-01-28 16:25:00,
2013-01-28 11:27:00,21.4,16.7,30.07,East,90,6.9,12.1,82,0.00,,,0.00,WUHU21623XXSP,2013-01-28 16:27:00,
2013-01-28 11:29:00,21.2,16.5,30.07,NE,45,6.5,12.1,82,0.00,,,0.00,WUHU21623XXSP,2013-01-28 16:29:00,
2013-01-28 11:31:00,21.4,16.7,30.07,SSE,157,6.9,11.9,82,0.00,,,0.00,WUHU21623XXSP,2013-01-28 16:31:00,
2013-01-28 11:33:00,21.2,16.5,30.07,South,180,9.2,11.9,82,0.00,,,0.00,WUHU21623XXSP,2013-01-28 16:33:00,
2013-01-28 11:36:00,21.0,16.3,30.07,SE,135,8.7,9.2,82,0.00,,,0.00,WUHU21623XXSP,2013-01-28 16:36:00,
2013-01-28 11:38:00,21.0,16.3,30.06,SE,135,6.9,9.2,82,0.00,,,0.00,WUHU21623XXSP,2013-01-28 16:38:00,
2013-01-28 11:40:00,21.0,16.3,30.06,ESE,112,6.9,9.2,82,0.00,,,0.00,WUHU21623XXSP,2013-01-28 16:40:00,
2013-01-28 11:42:00,21.0,16.1,30.05,SSE,157,1.6,9.2,81,0.00,,,0.00,WUHU21623XXSP,2013-01-28 16:42:00,
2013-01-28 11:44:00,21.0,16.1,30.05,SE,135,6.5,8.7,81,0.00,,,0.00,WUHU21623XXSP,2013-01-28 16:44:00,
2013-01-28 11:46:00,21.0,16.1,30.04,ESE,112,6.7,6.9,81,0.00,,,0.00,WUHU21623XXSP,2013-01-28 16:46:00,
2013-01-28 11:48:00,21.0,16.1,30.04,SSE,157,5.8,6.9,81,0.00,,,0.00,WUHU21623XXSP,2013-01-28 16:48:00,
2013-01-28 11:50:00,21.0,16.3,30.04,SE,135,3.1,6.7,82,0.00,,,0.00,WUHU21623XXSP,2013-01-28 16:50:00,
2013-01-28 11:53:00,21.0,16.1,30.04,SE,135,4.9,6.7,81,0.00,,,0.00,WUHU21623XXSP,2013-01-28 16:53:00,
2013-01-28 11:55:00,21.0,16.1,30.04,SSE,157,6.5,6.7,81,0.00,,,0.00,WUHU21623XXSP,2013-01-28 16:55:00,
2013-01-28 11:57:00,21.0,16.1,30.04,SSE,157,2.2,6.5,81,0.00,,,0.00,WUHU21623XXSP,2013-01-28 16:57:00,
2013-01-28 11:59:00,21.0,16.1,30.04,SSE,157,5.1,6.5,81,0.00,,,0.00,WUHU21623XXSP,2013-01-28 16:59:00,
2013-01-28 12:01:00,21.0,16.1,30.04,ESE,112,4.7,6.5,81,0.00,,,0.00,WUHU21623XXSP,2013-01-28 17:01:00,
2013-01-28 12:03:00,21.0,16.1,30.04,SE,135,7.2,7.2,81,0.00,,,0.00,WUHU21623XXSP,2013-01-28 17:03:00,
2013-01-28 12:05:00,21.0,16.1,30.04,SSE,157,6.9,7.2,81,0.00,,,0.00,WUHU21623XXSP,2013-01-28 17:05:00,
2013-01-28 12:08:00,21.4,16.4,30.03,SSE,157,2.2,7.2,81,0.00,,,0.00,WUHU21623XXSP,2013-01-28 17:08:00,
2013-01-28 12:10:00,21.4,16.4,30.03,East,90,6.5,7.2,81,0.00,,,0.00,WUHU21623XXSP,2013-01-28 17:10:00,
2013-01-28 12:12:00,21.4,16.2,30.02,ESE,112,10.7,10.7,80,0.00,,,0.00,WUHU21623XXSP,2013-01-28 17:12:00,
2013-01-28 12:14:00,21.4,16.4,30.02,ESE,112,5.1,10.7,81,0.00,,,0.00,WUHU21623XXSP,2013-01-28 17:14:00,
2013-01-28 12:16:00,21.4,16.4,30.03,East,90,11.9,11.9,81,0.00,,,0.00,WUHU21623XXSP,2013-01-28 17:16:00,
2013-01-28 12:18:00,21.4,16.2,30.03,SE,135,1.1,11.9,80,0.00,,,0.00,WUHU21623XXSP,2013-01-28 17:18:00,
2013-01-28 12:20:00,21.4,16.4,30.03,SE,135,2.5,11.9,81,0.00,,,0.00,WUHU21623XXSP,2013-01-28 17:20:00,
2013-01-28 12:22:00,21.4,16.2,30.03,SE,135,14.1,14.1,80,0.00,,,0.00,WUHU21623XXSP,2013-01-28 17:22:00,
2013-01-28 12:25:00,21.4,16.2,30.02,SSE,157,0.0,14.1,80,0.00,,,0.00,WUHU21623XXSP,2013-01-28 17:25:00,
2013-01-28 12:27:00,21.4,16.2,30.02,ESE,112,6.0,14.1,80,0.00,,,0.00,WUHU21623XXSP,2013-01-28 17:27:00,
2013-01-28 12:29:00,21.4,16.2,30.02,ESE,112,7.2,14.1,80,0.00,,,0.00,WUHU21623XXSP,2013-01-28 17:29:00,
2013-01-28 12:31:00,21.4,16.2,30.02,SSE,157,6.9,14.1,80,0.00,,,0.00,WUHU21623XXSP,2013-01-28 17:31:00,
2013-01-28 12:33:00,21.4,16.2,30.02,East,90,7.2,7.2,80,0.00,,,0.00,WUHU21623XXSP,2013-01-28 17:33:00,
2013-01-28 12:35:00,21.4,16.2,30.02,SE,135,8.9,8.9,80,0.00,,,0.00,WUHU21623XXSP,2013-01-28 17:35:00,
2013-01-28 12:38:00,21.6,16.3,30.02,SE,135,5.4,8.9,80,0.00,,,0.00,WUHU21623XXSP,2013-01-28 17:38:00,
2013-01-28 12:40:00,21.6,16.3,30.02,SE,135,7.2,8.9,80,0.00,,,0.00,WUHU21623XXSP,2013-01-28 17:40:00,
2013-01-28 12:42:00,21.7,16.8,30.01,ESE,112,6.7,8.9,81,0.00,,,0.00,WUHU21623XXSP,2013-01-28 17:42:00,
2013-01-28 12:44:00,21.6,16.3,30.01,ESE,112,6.3,8.9,80,0.00,,,0.00,WUHU21623XXSP,2013-01-28 17:44:00,
2013-01-28 12:46:00,21.6,16.6,30.01,SSE,157,6.0,7.2,81,0.00,,,0.00,WUHU21623XXSP,2013-01-28 17:46:00,
2013-01-28 12:48:00,21.6,16.6,30.01,SE,135,3.4,7.2,81,0.00,,,0.00,WUHU21623XXSP,2013-01-28 17:48:00,
2013-01-28 12:50:00,21.6,16.6,30.02,South,180,5.6,6.7,81,0.00,,,0.00,WUHU21623XXSP,2013-01-28 17:50:00,
2013-01-28 12:53:00,21.6,16.6,30.02,SE,135,4.3,6.3,81,0.00,,,0.00,WUHU21623XXSP,2013-01-28 17:53:00,
2013-01-28 12:55:00,21.6,16.6,30.01,SE,135,3.8,6.0,81,0.00,,,0.00,WUHU21623XXSP,2013-01-28 17:55:00,
2013-01-28 12:57:00,21.7,16.8,30.02,ESE,112,5.4,5.6,81,0.00,,,0.00,WUHU21623XXSP,2013-01-28 17:57:00,
2013-01-28 12:59:00,21.7,17.1,30.01,ESE,112,5.4,5.6,82,0.00,,,0.00,WUHU21623XXSP,2013-01-28 17:59:00,
2013-01-28 13:01:00,21.7,17.1,30.01,SE,135,4.9,5.4,82,0.00,,,0.00,WUHU21623XXSP,2013-01-28 18:01:00,
2013-01-28 13:03:00,21.9,17.2,30.01,ESE,112,4.9,5.4,82,0.00,,,0.00,WUHU21623XXSP,2013-01-28 18:03:00,
2013-01-28 13:05:00,21.9,17.2,30.01,SSE,157,3.4,5.4,82,0.00,,,0.00,WUHU21623XXSP,2013-01-28 18:05:00,
2013-01-28 13:07:00,22.1,17.4,30.01,SE,135,1.3,5.4,82,0.00,,,0.00,WUHU21623XXSP,2013-01-28 18:07:00,
2013-01-28 13:10:00,22.1,17.4,30.01,SE,135,6.9,6.9,82,0.00,,,0.00,WUHU21623XXSP,2013-01-28 18:10:00,
2013-01-28 13:12:00,22.1,17.7,30.01,ESE,112,6.9,6.9,83,0.00,,,0.00,WUHU21623XXSP,2013-01-28 18:12:00,
2013-01-28 13:14:00,22.3,17.9,30.01,South,180,0.0,6.9,83,0.00,,,0.00,WUHU21623XXSP,2013-01-28 18:14:00,
2013-01-28 13:16:00,22.1,17.7,30.00,SE,135,6.7,6.9,83,0.00,,,0.00,WUHU21623XXSP,2013-01-28 18:16:00,
2013-01-28 13:18:00,22.1,17.7,30.00,SSE,157,2.0,6.9,83,0.00,,,0.00,WUHU21623XXSP,2013-01-28 18:18:00,
2013-01-28 13:20:00,21.9,17.5,30.00,SE,135,10.3,10.3,83,0.00,,,0.00,WUHU21623XXSP,2013-01-28 18:20:00,
2013-01-28 13:23:00,21.9,17.5,30.00,SSE,157,0.9,10.3,83,0.00,,,0.00,WUHU21623XXSP,2013-01-28 18:23:00,
2013-01-28 13:25:00,21.9,17.5,30.00,ESE,112,4.9,10.3,83,0.00,,,0.00,WUHU21623XXSP,2013-01-28 18:25:00,
2013-01-28 13:27:00,21.9,17.5,30.00,SSE,157,8.5,10.3,83,0.00,,,0.00,WUHU21623XXSP,2013-01-28 18:27:00,
2013-01-28 13:29:00,21.9,17.5,30.00,SE,135,4.5,10.3,83,0.00,,,0.00,WUHU21623XXSP,2013-01-28 18:29:00,
2013-01-28 13:31:00,21.9,17.5,30.00,SE,135,0.0,8.5,83,0.00,,,0.00,WUHU21623XXSP,2013-01-28 18:31:00,
2013-01-28 13:33:00,21.9,17.5,29.99,SSE,157,0.0,8.5,83,0.00,,,0.00,WUHU21623XXSP,2013-01-28 18:33:00,
2013-01-28 13:35:00,22.1,18.0,29.99,ESE,112,6.5,8.5,84,0.00,,,0.00,WUHU21623XXSP,2013-01-28 18:35:00,
2013-01-28 13:37:00,22.1,17.7,29.99,SSE,157,6.9,6.9,83,0.00,,,0.00,WUHU21623XXSP,2013-01-28 18:37:00,
2013-01-28 13:40:00,21.9,17.5,29.98,ESE,112,9.6,9.6,83,0.00,,,0.00,WUHU21623XXSP,2013-01-28 18:40:00,
2013-01-28 13:42:00,22.1,17.7,29.98,SSE,157,4.3,9.6,83,0.00,,,0.00,WUHU21623XXSP,2013-01-28 18:42:00,
2013-01-28 13:44:00,22.3,18.1,29.98,ESE,112,6.9,9.6,84,0.00,,,0.00,WUHU21623XXSP,2013-01-28 18:44:00,
2013-01-28 13:46:00,22.3,17.9,29.98,SSE,157,10.1,10.1,83,0.00,,,0.00,WUHU21623XXSP,2013-01-28 18:46:00,
2013-01-28 13:48:00,22.3,18.1,29.97,SSE,157,5.8,10.1,84,0.00,,,0.00,WUHU21623XXSP,2013-01-28 18:48:00,
2013-01-28 13:50:00,22.5,18.3,29.97,SSE,157,0.7,10.1,84,0.00,,,0.00,WUHU21623XXSP,2013-01-28 18:50:00,
2013-01-28 13:52:00,22.5,18.3,29.98,SE,135,0.0,10.1,84,0.00,,,0.00,WUHU21623XXSP,2013-01-28 18:52:00,
2013-01-28 13:55:00,22.5,18.3,29.98,SE,135,7.4,10.1,84,0.00,,,0.00,WUHU21623XXSP,2013-01-28 18:55:00,
2013-01-28 13:57:00,22.5,18.3,29.97,SSE,157,5.8,7.4,84,0.00,,,0.00,WUHU21623XXSP,2013-01-28 18:57:00,
2013-01-28 13:59:00,22.5,18.3,29.97,SSE,157,10.3,10.3,84,0.00,,,0.00,WUHU21623XXSP,2013-01-28 18:59:00,
2013-01-28 14:01:00,22.3,18.1,29.97,SSE,157,5.1,10.3,84,0.00,,,0.00,WUHU21623XXSP,2013-01-28 19:01:00,
2013-01-28 14:03:00,22.3,18.1,29.97,SE,135,4.7,10.3,84,0.00,,,0.00,WUHU21623XXSP,2013-01-28 19:03:00,
2013-01-28 14:05:00,22.5,18.3,29.97,ESE,112,6.0,10.3,84,0.00,,,0.00,WUHU21623XXSP,2013-01-28 19:05:00,
2013-01-28 14:07:00,22.5,18.3,29.97,SSE,157,7.8,10.3,84,0.00,,,0.00,WUHU21623XXSP,2013-01-28 19:07:00,
2013-01-28 14:10:00,22.5,18.3,29.97,SSE,157,2.2,7.8,84,0.00,,,0.00,WUHU21623XXSP,2013-01-28 19:10:00,
2013-01-28 14:12:00,22.3,18.1,29.97,SSE,157,2.0,7.8,84,0.00,,,0.00,WUHU21623XXSP,2013-01-28 19:12:00,
2013-01-28 14:14:00,22.5,18.3,29.97,ESE,112,6.5,7.8,84,0.00,,,0.00,WUHU21623XXSP,2013-01-28 19:14:00,
2013-01-28 14:16:00,22.3,18.1,29.97,ESE,112,4.3,7.8,84,0.00,,,0.00,WUHU21623XXSP,2013-01-28 19:16:00,
2013-01-28 14:18:00,22.3,18.1,29.97,SE,135,0.9,6.5,84,0.00,,,0.00,WUHU21623XXSP,2013-01-28 19:18:00,
2013-01-28 14:20:00,22.5,18.3,29.97,ESE,112,4.9,6.5,84,0.00,,,0.00,WUHU21623XXSP,2013-01-28 19:20:00,
2013-01-28 14:22:00,22.5,18.3,29.97,SSE,157,0.9,6.5,84,0.00,,,0.00,WUHU21623XXSP,2013-01-28 19:22:00,
2013-01-28 14:25:00,22.5,18.3,29.97,South,180,3.1,4.9,84,0.00,,,0.00,WUHU21623XXSP,2013-01-28 19:25:00,
2013-01-28 14:27:00,22.6,18.5,29.97,SE,135,1.3,4.9,84,0.00,,,0.00,WUHU21623XXSP,2013-01-28 19:27:00,
2013-01-28 14:29:00,22.5,18.3,29.97,SSE,157,0.0,4.9,84,0.00,,,0.00,WUHU21623XXSP,2013-01-28 19:29:00,
2013-01-28 14:31:00,22.6,18.5,29.96,SSE,157,13.0,13.0,84,0.00,,,0.00,WUHU21623XXSP,2013-01-28 19:31:00,
2013-01-28 14:33:00,22.6,18.5,29.96,SE,135,3.8,13.0,84,0.00,,,0.00,WUHU21623XXSP,2013-01-28 19:33:00,
2013-01-28 14:35:00,22.6,18.5,29.96,South,180,9.2,13.0,84,0.00,,,0.00,WUHU21623XXSP,2013-01-28 19:35:00,
2013-01-28 14:37:00,22.5,18.3,29.96,SSE,157,3.6,13.0,84,0.00,,,0.00,WUHU21623XXSP,2013-01-28 19:37:00,
2013-01-28 14:40:00,22.3,18.1,29.96,SSE,157,2.7,13.0,84,0.00,,,0.00,WUHU21623XXSP,2013-01-28 19:40:00,
2013-01-28 14:42:00,22.3,18.1,29.96,SE,135,0.0,9.2,84,0.00,,,0.00,WUHU21623XXSP,2013-01-28 19:42:00,
2013-01-28 14:44:00,22.3,18.4,29.96,South,180,1.3,9.2,85,0.00,,,0.00,WUHU21623XXSP,2013-01-28 19:44:00,
2013-01-28 14:46:00,22.3,18.4,29.96,SSE,157,0.0,3.6,85,0.00,,,0.00,WUHU21623XXSP,2013-01-28 19:46:00,
2013-01-28 14:48:00,22.3,18.4,29.96,SSE,157,4.9,4.9,85,0.00,,,0.00,WUHU21623XXSP,2013-01-28 19:48:00,
2013-01-28 14:50:00,22.3,18.4,29.96,SSE,157,8.9,8.9,85,0.00,,,0.00,WUHU21623XXSP,2013-01-28 19:50:00,
2013-01-28 14:52:00,22.3,18.4,29.95,SSE,157,2.5,8.9,85,0.00,,,0.00,WUHU21623XXSP,2013-01-28 19:52:00,
2013-01-28 14:55:00,22.3,18.4,29.95,SSE,157,7.6,8.9,85,0.00,,,0.00,WUHU21623XXSP,2013-01-28 19:55:00,
2013-01-28 14:57:00,22.5,18.6,29.95,ESE,112,7.4,8.9,85,0.00,,,0.00,WUHU21623XXSP,2013-01-28 19:57:00,
2013-01-28 14:59:00,22.3,18.4,29.95,ESE,112,1.8,8.9,85,0.00,,,0.00,WUHU21623XXSP,2013-01-28 19:59:00,
2013-01-28 15:01:00,22.6,18.8,29.95,SSE,157,0.0,7.6,85,0.00,,,0.00,WUHU21623XXSP,2013-01-28 20:01:00,
2013-01-28 15:03:00,22.5,18.6,29.95,SE,135,6.3,7.6,85,0.00,,,0.00,WUHU21623XXSP,2013-01-28 20:03:00,
2013-01-28 15:05:00,22.6,18.8,29.95,SSE,157,4.7,7.4,85,0.00,,,0.00,WUHU21623XXSP,2013-01-28 20:05:00,
2013-01-28 15:07:00,22.6,18.8,29.95,SE,135,3.6,6.3,85,0.00,,,0.00,WUHU21623XXSP,2013-01-28 20:07:00,
2013-01-28 15:10:00,22.6,18.8,29.94,South,180,4.3,6.3,85,0.00,,,0.00,WUHU21623XXSP,2013-01-28 20:10:00,
2013-01-28 15:12:00,22.6,18.8,29.94,SE,135,8.1,8.1,85,0.00,,,0.00,WUHU21623XXSP,2013-01-28 20:12:00,
2013-01-28 15:14:00,22.6,18.8,29.95,East,90,0.9,8.1,85,0.00,,,0.00,WUHU21623XXSP,2013-01-28 20:14:00,
2013-01-28 15:16:00,22.8,19.2,29.95,SSE,157,7.4,8.1,86,0.00,,,0.00,WUHU21623XXSP,2013-01-28 20:16:00,
2013-01-28 15:18:00,22.8,19.2,29.95,SE,135,0.0,8.1,86,0.00,,,0.00,WUHU21623XXSP,2013-01-28 20:18:00,
2013-01-28 15:20:00,22.8,19.2,29.94,ESE,112,7.2,8.1,86,0.00,,,0.00,WUHU21623XXSP,2013-01-28 20:20:00,
2013-01-28 15:22:00,22.8,19.2,29.94,SSE,157,3.6,7.4,86,0.00,,,0.00,WUHU21623XXSP,2013-01-28 20:22:00,
2013-01-28 15:25:00,22.8,19.2,29.94,SSE,157,6.0,7.4,86,0.00,,,0.00,WUHU21623XXSP,2013-01-28 20:25:00,
2013-01-28 15:27:00,22.8,19.2,29.94,SE,135,3.6,7.2,86,0.00,,,0.00,WUHU21623XXSP,2013-01-28 20:27:00,
2013-01-28 15:29:00,22.8,19.2,29.94,SE,135,7.6,7.6,86,0.00,,,0.00,WUHU21623XXSP,2013-01-28 20:29:00,
2013-01-28 15:31:00,22.8,19.2,29.94,ESE,112,5.1,7.6,86,0.00,,,0.00,WUHU21623XXSP,2013-01-28 20:31:00,
2013-01-28 15:33:00,23.0,19.4,29.93,SE,135,6.0,7.6,86,0.00,,,0.00,WUHU21623XXSP,2013-01-28 20:33:00,
2013-01-28 15:35:00,23.0,19.4,29.93,ESE,112,7.4,7.6,86,0.00,,,0.00,WUHU21623XXSP,2013-01-28 20:35:00,
2013-01-28 15:37:00,23.2,19.6,29.93,SE,135,0.0,7.6,86,0.00,,,0.00,WUHU21623XXSP,2013-01-28 20:37:00,
2013-01-28 15:40:00,23.2,19.6,29.93,SE,135,1.6,7.4,86,0.00,,,0.00,WUHU21623XXSP,2013-01-28 20:40:00,
2013-01-28 15:42:00,23.2,19.6,29.93,SE,135,0.0,7.4,86,0.00,,,0.00,WUHU21623XXSP,2013-01-28 20:42:00,
2013-01-28 15:44:00,23.2,19.6,29.93,SSE,157,0.0,7.4,86,0.00,,,0.00,WUHU21623XXSP,2013-01-28 20:44:00,
2013-01-28 15:46:00,23.2,19.6,29.94,ESE,112,0.0,1.6,86,0.00,,,0.00,WUHU21623XXSP,2013-01-28 20:46:00,
2013-01-28 15:48:00,23.2,19.6,29.94,SSE,157,6.0,6.0,86,0.00,,,0.00,WUHU21623XXSP,2013-01-28 20:48:00,
2013-01-28 15:50:00,23.2,19.6,29.93,ESE,112,6.0,6.0,86,0.00,,,0.00,WUHU21623XXSP,2013-01-28 20:50:00,
2013-01-28 15:52:00,23.2,19.6,29.93,SSE,157,1.8,6.0,86,0.00,,,0.00,WUHU21623XXSP,2013-01-28 20:52:00,
2013-01-28 15:54:00,23.2,19.6,29.93,ESE,112,6.0,6.0,86,0.00,,,0.00,WUHU21623XXSP,2013-01-28 20:54:00,
2013-01-28 15:57:00,23.2,19.6,29.92,SSE,157,5.4,6.0,86,0.00,,,0.00,WUHU21623XXSP,2013-01-28 20:57:00,
2013-01-28 15:59:00,23.2,19.6,29.93,SE,135,8.7,8.7,86,0.00,,,0.00,WUHU21623XXSP,2013-01-28 20:59:00,
2013-01-28 16:01:00,23.2,19.6,29.93,SSE,157,7.8,8.7,86,0.00,,,0.00,WUHU21623XXSP,2013-01-28 21:01:00,
2013-01-28 16:03:00,23.5,19.9,29.93,SE,135,0.0,8.7,86,0.00,,,0.00,WUHU21623XXSP,2013-01-28 21:03:00,
2013-01-28 16:05:00,23.5,19.9,29.93,SSE,157,5.4,8.7,86,0.00,,,0.00,WUHU21623XXSP,2013-01-28 21:05:00,
2013-01-28 16:07:00,23.7,20.1,29.93,ESE,112,0.0,8.7,86,0.00,,,0.00,WUHU21623XXSP,2013-01-28 21:07:00,
2013-01-28 16:10:00,23.7,20.4,29.92,SSE,157,7.4,7.8,87,0.00,,,0.00,WUHU21623XXSP,2013-01-28 21:10:00,
2013-01-28 16:12:00,23.9,20.6,29.93,East,90,7.2,7.4,87,0.00,,,0.00,WUHU21623XXSP,2013-01-28 21:12:00,
2013-01-28 16:14:00,23.7,20.4,29.92,SSE,157,1.1,7.4,87,0.00,,,0.00,WUHU21623XXSP,2013-01-28 21:14:00,
2013-01-28 16:16:00,23.9,20.6,29.93,SSE,157,0.0,7.4,87,0.00,,,0.00,WUHU21623XXSP,2013-01-28 21:16:00,
2013-01-28 16:18:00,24.1,20.5,29.93,East,90,5.4,7.4,86,0.00,,,0.00,WUHU21623XXSP,2013-01-28 21:18:00,
2013-01-28 16:20:00,23.9,20.3,29.93,ESE,112,0.0,7.2,86,0.00,,,0.00,WUHU21623XXSP,2013-01-28 21:20:00,
2013-01-28 16:22:00,23.9,20.3,29.93,SE,135,1.8,5.4,86,0.00,,,0.00,WUHU21623XXSP,2013-01-28 21:22:00,
2013-01-28 16:25:00,24.1,20.5,29.93,SE,135,0.0,5.4,86,0.00,,,0.00,WUHU21623XXSP,2013-01-28 21:25:00,
2013-01-28 16:27:00,24.1,20.5,29.92,SSE,157,0.0,5.4,86,0.00,,,0.00,WUHU21623XXSP,2013-01-28 21:27:00,
2013-01-28 16:29:00,24.1,20.5,29.92,SSE,157,0.0,1.8,86,0.00,,,0.00,WUHU21623XXSP,2013-01-28 21:29:00,
2013-01-28 16:31:00,24.1,20.5,29.92,East,90,6.0,6.0,86,0.00,,,0.00,WUHU21623XXSP,2013-01-28 21:31:00,
2013-01-28 16:33:00,24.1,20.5,29.92,ESE,112,0.0,6.0,86,0.00,,,0.00,WUHU21623XXSP,2013-01-28 21:33:00,
2013-01-28 16:35:00,24.3,20.7,29.92,South,180,0.0,6.0,86,0.00,,,0.00,WUHU21623XXSP,2013-01-28 21:35:00,
2013-01-28 16:37:00,24.1,20.5,29.92,SSE,157,8.1,8.1,86,0.00,,,0.00,WUHU21623XXSP,2013-01-28 21:37:00,
2013-01-28 16:39:00,24.4,20.8,29.92,SE,135,6.0,8.1,86,0.00,,,0.00,WUHU21623XXSP,2013-01-28 21:39:00,
2013-01-28 16:42:00,24.4,20.8,29.91,SE,135,2.7,8.1,86,0.00,,,0.00,WUHU21623XXSP,2013-01-28 21:42:00,
2013-01-28 16:44:00,24.4,21.1,29.91,SSE,157,0.0,8.1,87,0.00,,,0.00,WUHU21623XXSP,2013-01-28 21:44:00,
2013-01-28 16:46:00,24.6,21.3,29.91,SE,135,1.1,8.1,87,0.00,,,0.00,WUHU21623XXSP,2013-01-28 21:46:00,
2013-01-28 16:48:00,24.6,21.3,29.91,SE,135,4.0,6.0,87,0.00,,,0.00,WUHU21623XXSP,2013-01-28 21:48:00,
2013-01-28 16:50:00,24.6,21.3,29.91,ESE,112,0.0,4.0,87,0.00,,,0.00,WUHU21623XXSP,2013-01-28 21:50:00,
2013-01-28 16:52:00,24.6,21.3,29.91,ENE,67,1.6,4.0,87,0.00,,,0.00,WUHU21623XXSP,2013-01-28 21:52:00,
2013-01-28 16:54:00,25.0,21.6,29.91,SSE,157,0.0,4.0,87,0.00,,,0.00,WUHU21623XXSP,2013-01-28 21:54:00,
2013-01-28 16:57:00,25.0,21.6,29.91,SSE,157,0.0,4.0,87,0.00,,,0.00,WUHU21623XXSP,2013-01-28 21:57:00,
2013-01-28 16:59:00,25.2,21.8,29.91,ESE,112,5.8,5.8,87,0.00,,,0.00,WUHU21623XXSP,2013-01-28 21:59:00,
2013-01-28 17:01:00,25.3,22.0,29.92,SE,135,0.0,5.8,87,0.00,,,0.00,WUHU21623XXSP,2013-01-28 22:01:00,
2013-01-28 17:03:00,25.3,22.0,29.91,SE,135,0.0,5.8,87,0.00,,,0.00,WUHU21623XXSP,2013-01-28 22:03:00,
2013-01-28 17:05:00,25.5,22.2,29.91,ESE,112,0.0,5.8,87,0.00,,,0.00,WUHU21623XXSP,2013-01-28 22:05:00,
2013-01-28 17:07:00,25.5,22.2,29.92,SE,135,0.9,5.8,87,0.00,,,0.00,WUHU21623XXSP,2013-01-28 22:07:00,
2013-01-28 17:09:00,25.5,22.2,29.92,SSE,157,1.3,1.3,87,0.00,,,0.00,WUHU21623XXSP,2013-01-28 22:09:00,
2013-01-28 17:12:00,25.5,22.2,29.92,SSE,157,0.0,1.3,87,0.00,,,0.00,WUHU21623XXSP,2013-01-28 22:12:00,
2013-01-28 17:14:00,25.7,22.3,29.92,ESE,112,0.0,1.3,87,0.00,,,0.00,WUHU21623XXSP,2013-01-28 22:14:00,
2013-01-28 17:16:00,25.7,22.3,29.92,ESE,112,4.3,4.3,87,0.00,,,0.00,WUHU21623XXSP,2013-01-28 22:16:00,
2013-01-28 17:18:00,25.7,22.3,29.92,ESE,112,6.7,6.7,87,0.00,,,0.00,WUHU21623XXSP,2013-01-28 22:18:00,
2013-01-28 17:20:00,25.7,22.3,29.92,ESE,112,0.0,6.7,87,0.00,,,0.00,WUHU21623XXSP,2013-01-28 22:20:00,
2013-01-28 17:22:00,25.9,22.5,29.91,SE,135,1.6,6.7,87,0.00,,,0.00,WUHU21623XXSP,2013-01-28 22:22:00,
2013-01-28 17:24:00,25.9,22.5,29.92,SSE,157,0.0,6.7,87,0.00,,,0.00,WUHU21623XXSP,2013-01-28 22:24:00,
2013-01-28 17:27:00,25.9,22.5,29.92,SSE,157,3.4,6.7,87,0.00,,,0.00,WUHU21623XXSP,2013-01-28 22:27:00,
2013-01-28 17:29:00,25.9,22.5,29.92,ESE,112,1.3,3.4,87,0.00,,,0.00,WUHU21623XXSP,2013-01-28 22:29:00,
2013-01-28 17:31:00,25.9,22.5,29.92,SE,135,3.6,3.6,87,0.00,,,0.00,WUHU21623XXSP,2013-01-28 22:31:00,
2013-01-28 17:33:00,25.9,22.5,29.92,SE,135,0.0,3.6,87,0.00,,,0.00,WUHU21623XXSP,2013-01-28 22:33:00,
2013-01-28 17:35:00,25.9,22.5,29.92,SE,135,2.5,3.6,87,0.00,,,0.00,WUHU21623XXSP,2013-01-28 22:35:00,
2013-01-28 17:37:00,25.9,22.5,29.92,SE,135,0.0,3.6,87,0.00,,,0.00,WUHU21623XXSP,2013-01-28 22:37:00,
2013-01-28 17:39:00,25.9,22.5,29.92,SSE,157,4.5,4.5,87,0.00,,,0.00,WUHU21623XXSP,2013-01-28 22:39:00,
2013-01-28 17:42:00,25.7,22.3,29.91,SE,135,0.0,4.5,87,0.00,,,0.00,WUHU21623XXSP,2013-01-28 22:42:00,
2013-01-28 17:44:00,25.9,22.5,29.91,SSE,157,0.0,4.5,87,0.00,,,0.00,WUHU21623XXSP,2013-01-28 22:44:00,
2013-01-28 17:46:00,25.9,22.5,29.91,SSE,157,3.4,4.5,87,0.00,,,0.00,WUHU21623XXSP,2013-01-28 22:46:00,
2013-01-28 17:48:00,25.9,22.5,29.91,South,180,7.6,7.6,87,0.00,,,0.00,WUHU21623XXSP,2013-01-28 22:48:00,
2013-01-28 17:50:00,25.9,22.5,29.92,SSE,157,8.5,8.5,87,0.00,,,0.00,WUHU21623XXSP,2013-01-28 22:50:00,
2013-01-28 17:52:00,25.7,22.3,29.92,South,180,0.0,8.5,87,0.00,,,0.00,WUHU21623XXSP,2013-01-28 22:52:00,
2013-01-28 17:55:00,25.7,22.3,29.91,SSE,157,0.0,8.5,87,0.00,,,0.00,WUHU21623XXSP,2013-01-28 22:55:00,
2013-01-28 17:57:00,25.7,22.3,29.91,SE,135,4.0,8.5,87,0.00,,,0.00,WUHU21623XXSP,2013-01-28 22:57:00,
2013-01-28 17:59:00,25.7,22.3,29.91,SSE,157,7.4,8.5,87,0.00,,,0.00,WUHU21623XXSP,2013-01-28 22:59:00,
2013-01-28 18:01:00,25.9,22.5,29.91,South,180,6.7,7.4,87,0.00,,,0.00,WUHU21623XXSP,2013-01-28 23:01:00,
2013-01-28 18:03:00,25.9,22.5,29.91,ESE,112,4.5,7.4,87,0.00,,,0.00,WUHU21623XXSP,2013-01-28 23:03:00,
2013-01-28 18:05:00,25.9,22.5,29.91,SE,135,0.2,7.4,87,0.00,,,0.00,WUHU21623XXSP,2013-01-28 23:05:00,
2013-01-28 18:07:00,26.1,22.7,29.91,ENE,67,4.9,7.4,87,0.00,,,0.00,WUHU21623XXSP,2013-01-28 23:07:00,
2013-01-28 18:09:00,26.1,22.7,29.91,SSE,157,0.0,6.7,87,0.00,,,0.00,WUHU21623XXSP,2013-01-28 23:09:00,
2013-01-28 18:12:00,26.2,22.9,29.91,SSE,157,7.4,7.4,87,0.00,,,0.00,WUHU21623XXSP,2013-01-28 23:12:00,
2013-01-28 18:14:00,26.2,22.9,29.91,ESE,112,3.4,7.4,87,0.00,,,0.00,WUHU21623XXSP,2013-01-28 23:14:00,
2013-01-28 18:16:00,26.2,22.9,29.91,SSE,157,3.8,7.4,87,0.00,,,0.00,WUHU21623XXSP,2013-01-28 23:16:00,
2013-01-28 18:18:00,26.2,22.9,29.91,SSE,157,4.3,7.4,87,0.00,,,0.00,WUHU21623XXSP,2013-01-28 23:18:00,
2013-01-28 18:20:00,26.2,22.9,29.91,SE,135,0.0,7.4,87,0.00,,,0.00,WUHU21623XXSP,2013-01-28 23:20:00,
2013-01-28 18:22:00,26.2,22.9,29.91,SSE,157,1.1,4.3,87,0.00,,,0.00,WUHU21623XXSP,2013-01-28 23:22:00,
2013-01-28 18:24:00,26.4,23.0,29.91,SSE,157,0.0,4.3,87,0.00,,,0.00,WUHU21623XXSP,2013-01-28 23:24:00,
2013-01-28 18:27:00,26.4,23.0,29.90,ESE,112,0.0,4.3,87,0.00,,,0.00,WUHU21623XXSP,2013-01-28 23:27:00,
2013-01-28 18:29:00,26.4,23.0,29.91,South,180,0.0,1.1,87,0.00,,,0.00,WUHU21623XXSP,2013-01-28 23:29:00,
2013-01-28 18:31:00,26.4,23.0,29.91,SE,135,0.0,1.1,87,0.00,,,0.00,WUHU21623XXSP,2013-01-28 23:31:00,
2013-01-28 18:33:00,26.6,23.2,29.91,ESE,112,0.0,0.0,87,0.00,,,0.00,WUHU21623XXSP,2013-01-28 23:33:00,
2013-01-28 18:35:00,26.6,23.2,29.91,SSE,157,0.4,0.4,87,0.00,,,0.00,WUHU21623XXSP,2013-01-28 23:35:00,
2013-01-28 18:37:00,26.8,23.4,29.90,SSE,157,4.0,4.0,87,0.00,,,0.00,WUHU21623XXSP,2013-01-28 23:37:00,
2013-01-28 18:39:00,26.8,23.4,29.90,SSE,157,6.3,6.3,87,0.00,,,0.00,WUHU21623XXSP,2013-01-28 23:39:00,
2013-01-28 18:42:00,26.8,23.4,29.90,SSE,157,0.0,6.3,87,0.00,,,0.00,WUHU21623XXSP,2013-01-28 23:42:00,
2013-01-28 18:44:00,27.0,23.6,29.90,SSE,157,4.0,6.3,87,0.00,,,0.00,WUHU21623XXSP,2013-01-28 23:44:00,
2013-01-28 18:46:00,27.0,23.6,29.91,SSE,157,0.0,6.3,87,0.00,,,0.00,WUHU21623XXSP,2013-01-28 23:46:00,
2013-01-28 18:48:00,27.0,23.6,29.90,SE,135,0.0,6.3,87,0.00,,,0.00,WUHU21623XXSP,2013-01-28 23:48:00,
2013-01-28 18:50:00,27.1,23.8,29.90,SSE,157,1.6,4.0,87,0.00,,,0.00,WUHU21623XXSP,2013-01-28 23:50:00,
2013-01-28 18:52:00,27.1,23.8,29.90,SSE,157,0.0,4.0,87,0.00,,,0.00,WUHU21623XXSP,2013-01-28 23:52:00,
2013-01-28 18:54:00,27.1,23.8,29.90,SE,135,0.0,1.6,87,0.00,,,0.00,WUHU21623XXSP,2013-01-28 23:54:00,
2013-01-28 18:57:00,27.3,23.9,29.90,SSE,157,0.0,1.6,87,0.00,,,0.00,WUHU21623XXSP,2013-01-28 23:57:00,
2013-01-28 18:59:00,27.3,23.9,29.90,SSE,157,0.0,1.6,87,0.00,,,0.00,WUHU21623XXSP,2013-01-28 23:59:00,
2013-01-28 19:01:00,27.3,23.9,29.90,SSE,157,0.0,0.0,87,0.00,,,0.00,WUHU21623XXSP,2013-01-29 00:01:00,
2013-01-28 19:03:00,27.3,23.9,29.90,SSE,157,0.0,0.0,87,0.00,,,0.00,WUHU21623XXSP,2013-01-29 00:03:00,
2013-01-28 19:05:00,27.3,23.9,29.90,SE,135,1.1,1.1,87,0.00,,,0.00,WUHU21623XXSP,2013-01-29 00:05:00,
2013-01-28 19:07:00,27.5,24.4,29.90,SSE,157,1.1,1.1,88,0.00,,,0.00,WUHU21623XXSP,2013-01-29 00:07:00,
2013-01-28 19:09:00,27.5,24.4,29.90,ESE,112,5.8,5.8,88,0.00,,,0.00,WUHU21623XXSP,2013-01-29 00:09:00,
2013-01-28 19:11:00,27.7,24.6,29.90,SE,135,3.1,5.8,88,0.00,,,0.00,WUHU21623XXSP,2013-01-29 00:11:00,
2013-01-28 19:14:00,27.7,24.6,29.90,SE,135,0.0,5.8,88,0.00,,,0.00,WUHU21623XXSP,2013-01-29 00:14:00,
2013-01-28 19:16:00,27.7,24.6,29.90,SSE,157,8.3,8.3,88,0.00,,,0.00,WUHU21623XXSP,2013-01-29 00:16:00,
2013-01-28 19:18:00,28.0,24.9,29.89,SSE,157,3.1,8.3,88,0.00,,,0.00,WUHU21623XXSP,2013-01-29 00:18:00,
2013-01-28 19:20:00,28.0,24.9,29.89,SE,135,1.3,8.3,88,0.00,,,0.00,WUHU21623XXSP,2013-01-29 00:20:00,
2013-01-28 19:22:00,28.2,25.1,29.89,SSE,157,0.0,8.3,88,0.00,,,0.00,WUHU21623XXSP,2013-01-29 00:22:00,
2013-01-28 19:24:00,28.2,25.1,29.90,ESE,112,0.0,8.3,88,0.00,,,0.00,WUHU21623XXSP,2013-01-29 00:24:00,
2013-01-28 19:26:00,28.2,25.1,29.89,ESE,112,0.0,3.1,88,0.00,,,0.00,WUHU21623XXSP,2013-01-29 00:26:00,
2013-01-28 19:29:00,28.2,25.1,29.89,SSE,157,0.0,1.3,88,0.00,,,0.00,WUHU21623XXSP,2013-01-29 00:29:00,
2013-01-28 19:31:00,28.2,25.1,29.90,South,180,0.0,0.0,88,0.00,,,0.00,WUHU21623XXSP,2013-01-29 00:31:00,
2013-01-28 19:33:00,28.6,25.5,29.89,SE,135,3.6,3.6,88,0.00,,,0.00,WUHU21623XXSP,2013-01-29 00:33:00,
2013-01-28 19:35:00,28.6,25.5,29.89,SE,135,0.0,3.6,88,0.00,,,0.00,WUHU21623XXSP,2013-01-29 00:35:00,
2013-01-28 19:37:00,28.6,25.2,29.88,SE,135,4.5,4.5,87,0.00,,,0.00,WUHU21623XXSP,2013-01-29 00:37:00,
2013-01-28 19:39:00,28.6,25.2,29.88,SSE,157,0.0,4.5,87,0.00,,,0.00,WUHU21623XXSP,2013-01-29 00:39:00,
2013-01-28 19:41:00,28.6,25.5,29.88,SSE,157,0.0,4.5,88,0.00,,,0.00,WUHU21623XXSP,2013-01-29 00:41:00,
2013-01-28 19:44:00,28.6,25.2,29.88,SSE,157,0.0,4.5,87,0.00,,,0.00,WUHU21623XXSP,2013-01-29 00:44:00,
2013-01-28 19:46:00,28.6,25.2,29.88,SSE,157,0.0,4.5,87,0.00,,,0.00,WUHU21623XXSP,2013-01-29 00:46:00,
2013-01-28 19:48:00,28.8,25.4,29.88,SSE,157,0.0,0.0,87,0.00,,,0.00,WUHU21623XXSP,2013-01-29 00:48:00,
2013-01-28 19:50:00,28.8,25.4,29.88,SSE,157,0.0,0.0,87,0.00,,,0.00,WUHU21623XXSP,2013-01-29 00:50:00,
2013-01-28 19:52:00,28.8,25.4,29.88,SE,135,1.1,1.1,87,0.00,,,0.00,WUHU21623XXSP,2013-01-29 00:52:00,
2013-01-28 19:54:00,28.9,25.6,29.88,SE,135,0.0,1.1,87,0.00,,,0.00,WUHU21623XXSP,2013-01-29 00:54:00,
2013-01-28 19:56:00,28.9,25.6,29.88,South,180,0.0,1.1,87,0.00,,,0.00,WUHU21623XXSP,2013-01-29 00:56:00,
2013-01-28 19:59:00,29.1,25.7,29.88,South,180,0.0,1.1,87,0.00,,,0.00,WUHU21623XXSP,2013-01-29 00:59:00,
2013-01-28 20:01:00,29.1,25.7,29.88,South,180,2.9,2.9,87,0.00,,,0.00,WUHU21623XXSP,2013-01-29 01:01:00,
2013-01-28 20:03:00,29.1,25.7,29.88,South,180,0.0,2.9,87,0.00,,,0.00,WUHU21623XXSP,2013-01-29 01:03:00,
2013-01-28 20:05:00,29.1,25.7,29.88,South,180,0.0,2.9,87,0.00,,,0.00,WUHU21623XXSP,2013-01-29 01:05:00,
2013-01-28 20:07:00,29.1,25.7,29.88,ESE,112,0.0,2.9,87,0.00,,,0.00,WUHU21623XXSP,2013-01-29 01:07:00,
2013-01-28 20:09:00,29.3,25.9,29.88,SE,135,3.1,3.1,87,0.00,,,0.00,WUHU21623XXSP,2013-01-29 01:09:00,
2013-01-28 20:11:00,29.3,25.9,29.88,SSE,157,0.0,3.1,87,0.00,,,0.00,WUHU21623XXSP,2013-01-29 01:11:00,
2013-01-28 20:13:00,29.3,25.9,29.88,SSE,157,0.0,3.1,87,0.00,,,0.00,WUHU21623XXSP,2013-01-29 01:13:00,
2013-01-28 20:16:00,29.3,25.9,29.88,SSE,157,0.0,3.1,87,0.00,,,0.00,WUHU21623XXSP,2013-01-29 01:16:00,
2013-01-28 20:18:00,29.5,26.1,29.89,SSE,157,0.0,3.1,87,0.00,,,0.00,WUHU21623XXSP,2013-01-29 01:18:00,
2013-01-28 20:20:00,29.5,26.1,29.89,ESE,112,0.0,0.0,87,0.00,,,0.00,WUHU21623XXSP,2013-01-29 01:20:00,
2013-01-28 20:22:00,29.5,26.1,29.88,ESE,112,0.4,0.4,87,0.00,,,0.00,WUHU21623XXSP,2013-01-29 01:22:00,
2013-01-28 20:24:00,29.5,26.1,29.89,ESE,112,0.0,0.4,87,0.00,,,0.00,WUHU21623XXSP,2013-01-29 01:24:00,
2013-01-28 20:26:00,29.7,26.3,29.88,ESE,112,0.0,0.4,87,0.00,,,0.00,WUHU21623XXSP,2013-01-29 01:26:00,
2013-01-28 20:28:00,29.7,26.3,29.88,ESE,112,0.0,0.4,87,0.00,,,0.00,WUHU21623XXSP,2013-01-29 01:28:00,
2013-01-28 20:31:00,29.7,26.3,29.89,ESE,112,0.0,0.4,87,0.00,,,0.00,WUHU21623XXSP,2013-01-29 01:31:00,
2013-01-28 20:33:00,29.7,26.3,29.88,ESE,112,0.0,0.0,87,0.00,,,0.00,WUHU21623XXSP,2013-01-29 01:33:00,
2013-01-28 20:35:00,29.8,26.5,29.88,ESE,112,0.0,0.0,87,0.00,,,0.00,WUHU21623XXSP,2013-01-29 01:35:00,
2013-01-28 20:37:00,29.8,26.5,29.88,ESE,112,0.0,0.0,87,0.00,,,0.00,WUHU21623XXSP,2013-01-29 01:37:00,
2013-01-28 20:39:00,29.8,26.7,29.88,ESE,112,0.0,0.0,88,0.00,,,0.00,WUHU21623XXSP,2013-01-29 01:39:00,
2013-01-28 20:41:00,29.8,26.7,29.88,ESE,112,0.2,0.2,88,0.00,,,0.00,WUHU21623XXSP,2013-01-29 01:41:00,
2013-01-28 20:43:00,29.8,26.7,29.88,SSE,157,0.0,0.2,88,0.00,,,0.00,WUHU21623XXSP,2013-01-29 01:43:00,
2013-01-28 20:46:00,29.8,26.7,29.88,SSE,157,0.0,0.2,88,0.00,,,0.00,WUHU21623XXSP,2013-01-29 01:46:00,
2013-01-28 20:48:00,30.0,26.9,29.88,SSE,157,0.0,0.2,88,0.00,,,0.00,WUHU21623XXSP,2013-01-29 01:48:00,
2013-01-28 20:50:00,30.0,26.9,29.88,SSE,157,0.0,0.2,88,0.00,,,0.00,WUHU21623XXSP,2013-01-29 01:50:00,
2013-01-28 20:52:00,30.0,26.9,29.89,SSE,157,0.0,0.0,88,0.00,,,0.00,WUHU21623XXSP,2013-01-29 01:52:00,
2013-01-28 20:54:00,30.0,26.9,29.89,SSE,157,0.0,0.0,88,0.00,,,0.00,WUHU21623XXSP,2013-01-29 01:54:00,
2013-01-28 20:56:00,30.0,26.9,29.89,SSE,157,0.0,0.0,88,0.00,,,0.00,WUHU21623XXSP,2013-01-29 01:56:00,
2013-01-28 20:59:00,30.0,26.9,29.89,SSE,157,0.0,0.0,88,0.00,,,0.00,WUHU21623XXSP,2013-01-29 01:59:00,
2013-01-28 21:01:00,30.0,26.9,29.89,SSE,157,0.0,0.0,88,0.00,,,0.00,WUHU21623XXSP,2013-01-29 02:01:00,
2013-01-28 21:03:00,30.0,26.9,29.89,SSE,157,0.0,0.0,88,0.00,,,0.00,WUHU21623XXSP,2013-01-29 02:03:00,
2013-01-28 21:05:00,29.8,26.7,29.89,SSE,157,0.0,0.0,88,0.00,,,0.00,WUHU21623XXSP,2013-01-29 02:05:00,
2013-01-28 21:07:00,29.7,26.3,29.89,SSE,157,0.0,0.0,87,0.00,,,0.00,WUHU21623XXSP,2013-01-29 02:07:00,
2013-01-28 21:09:00,29.7,26.3,29.89,SSE,157,0.0,0.0,87,0.00,,,0.00,WUHU21623XXSP,2013-01-29 02:09:00,
2013-01-28 21:11:00,29.7,26.3,29.88,SSE,157,0.0,0.0,87,0.00,,,0.00,WUHU21623XXSP,2013-01-29 02:11:00,
2013-01-28 21:13:00,29.5,26.1,29.88,SSE,157,0.0,0.0,87,0.00,,,0.00,WUHU21623XXSP,2013-01-29 02:13:00,
2013-01-28 21:16:00,29.5,26.1,29.88,SSE,157,0.0,0.0,87,0.00,,,0.00,WUHU21623XXSP,2013-01-29 02:16:00,
2013-01-28 21:18:00,29.5,26.1,29.88,SSE,157,0.0,0.0,87,0.00,,,0.00,WUHU21623XXSP,2013-01-29 02:18:00,
2013-01-28 21:20:00,29.5,26.1,29.88,SSE,157,0.0,0.0,87,0.00,,,0.00,WUHU21623XXSP,2013-01-29 02:20:00,
2013-01-28 21:22:00,29.5,26.1,29.88,SSE,157,0.0,0.0,87,0.00,,,0.00,WUHU21623XXSP,2013-01-29 02:22:00,
2013-01-28 21:24:00,29.7,26.3,29.88,SSE,157,0.0,0.0,87,0.00,,,0.00,WUHU21623XXSP,2013-01-29 02:24:00,
2013-01-28 21:26:00,29.7,26.3,29.88,SSE,157,0.0,0.0,87,0.00,,,0.00,WUHU21623XXSP,2013-01-29 02:26:00,
2013-01-28 21:28:00,29.8,26.7,29.88,SSE,157,0.0,0.0,88,0.00,,,0.00,WUHU21623XXSP,2013-01-29 02:28:00,
2013-01-28 21:31:00,30.0,26.9,29.88,SSE,157,0.0,0.0,88,0.00,,,0.00,WUHU21623XXSP,2013-01-29 02:31:00,
2013-01-28 21:33:00,30.0,26.9,29.88,SSE,157,0.0,0.0,88,0.00,,,0.00,WUHU21623XXSP,2013-01-29 02:33:00,
2013-01-28 21:35:00,30.0,26.9,29.88,SSE,157,0.0,0.0,88,0.00,,,0.00,WUHU21623XXSP,2013-01-29 02:35:00,
2013-01-28 21:37:00,30.2,27.1,29.87,SSE,157,0.0,0.0,88,0.00,,,0.00,WUHU21623XXSP,2013-01-29 02:37:00,
2013-01-28 21:39:00,30.2,27.1,29.88,SSE,157,0.0,0.0,88,0.00,,,0.00,WUHU21623XXSP,2013-01-29 02:39:00,
2013-01-28 21:41:00,30.4,27.3,29.88,SSE,157,0.0,0.0,88,0.00,,,0.00,WUHU21623XXSP,2013-01-29 02:41:00,
2013-01-28 21:43:00,30.4,27.3,29.88,SSE,157,0.0,0.0,88,0.00,,,0.00,WUHU21623XXSP,2013-01-29 02:43:00,
2013-01-28 21:46:00,30.4,27.3,29.88,SSE,157,0.0,0.0,88,0.00,,,0.00,WUHU21623XXSP,2013-01-29 02:46:00,
2013-01-28 21:48:00,30.4,27.3,29.88,SSE,157,0.0,0.0,88,0.00,,,0.00,WUHU21623XXSP,2013-01-29 02:48:00,
2013-01-28 21:50:00,30.4,27.3,29.89,SSE,157,0.0,0.0,88,0.00,,,0.00,WUHU21623XXSP,2013-01-29 02:50:00,
2013-01-28 21:52:00,30.4,27.3,29.89,SSE,157,0.0,0.0,88,0.00,,,0.00,WUHU21623XXSP,2013-01-29 02:52:00,
2013-01-28 21:54:00,30.4,27.3,29.88,SSE,157,0.9,0.9,88,0.00,,,0.00,WUHU21623XXSP,2013-01-29 02:54:00,
2013-01-28 21:56:00,30.2,27.1,29.88,SSE,157,0.7,0.9,88,0.00,,,0.00,WUHU21623XXSP,2013-01-29 02:56:00,
2013-01-28 21:58:00,30.0,26.9,29.88,SSE,157,0.0,0.9,88,0.00,,,0.00,WUHU21623XXSP,2013-01-29 02:58:00,
2013-01-28 22:00:00,30.0,26.9,29.88,SSE,157,0.0,0.9,88,0.00,,,0.00,WUHU21623XXSP,2013-01-29 03:00:00,
2013-01-28 22:03:00,30.0,26.9,29.88,SSE,157,0.0,0.9,88,0.00,,,0.00,WUHU21623XXSP,2013-01-29 03:03:00,
2013-01-28 22:05:00,30.0,26.9,29.88,SSE,157,0.0,0.7,88,0.00,,,0.00,WUHU21623XXSP,2013-01-29 03:05:00,
2013-01-28 22:07:00,30.0,26.9,29.88,SSE,157,0.0,0.0,88,0.00,,,0.00,WUHU21623XXSP,2013-01-29 03:07:00,
2013-01-28 22:09:00,30.2,27.1,29.89,SSE,157,0.0,0.0,88,0.00,,,0.00,WUHU21623XXSP,2013-01-29 03:09:00,
2013-01-28 22:11:00,30.2,27.1,29.89,SSE,157,0.0,0.0,88,0.00,,,0.00,WUHU21623XXSP,2013-01-29 03:11:00,
2013-01-28 22:13:00,30.2,27.1,29.89,SSE,157,0.0,0.0,88,0.00,,,0.00,WUHU21623XXSP,2013-01-29 03:13:00,
2013-01-28 22:15:00,30.2,27.1,29.89,SSE,157,0.0,0.0,88,0.00,,,0.00,WUHU21623XXSP,2013-01-29 03:15:00,
2013-01-28 22:18:00,30.2,27.1,29.89,SSE,157,0.0,0.0,88,0.00,,,0.00,WUHU21623XXSP,2013-01-29 03:18:00,
2013-01-28 22:20:00,30.2,27.1,29.89,SSE,157,0.0,0.0,88,0.00,,,0.00,WUHU21623XXSP,2013-01-29 03:20:00,
2013-01-28 22:22:00,30.2,27.1,29.89,SSE,157,0.0,0.0,88,0.00,,,0.00,WUHU21623XXSP,2013-01-29 03:22:00,
2013-01-28 22:24:00,30.2,27.1,29.90,SSE,157,0.0,0.0,88,0.00,,,0.00,WUHU21623XXSP,2013-01-29 03:24:00,
2013-01-28 22:26:00,30.2,27.1,29.89,SSE,157,0.0,0.0,88,0.00,,,0.00,WUHU21623XXSP,2013-01-29 03:26:00,
2013-01-28 22:28:00,30.2,27.1,29.89,SSE,157,0.0,0.0,88,0.00,,,0.00,WUHU21623XXSP,2013-01-29 03:28:00,
2013-01-28 22:30:00,30.2,27.1,29.90,SSE,157,0.0,0.0,88,0.00,,,0.00,WUHU21623XXSP,2013-01-29 03:30:00,
2013-01-28 22:33:00,30.2,27.1,29.90,SSE,157,0.0,0.0,88,0.00,,,0.00,WUHU21623XXSP,2013-01-29 03:33:00,
2013-01-28 22:35:00,30.2,27.1,29.90,SSE,157,0.0,0.0,88,0.00,,,0.00,WUHU21623XXSP,2013-01-29 03:35:00,
2013-01-28 22:37:00,30.2,27.1,29.90,SSE,157,0.0,0.0,88,0.00,,,0.00,WUHU21623XXSP,2013-01-29 03:37:00,
2013-01-28 22:39:00,30.2,27.1,29.90,SSE,157,0.0,0.0,88,0.00,,,0.00,WUHU21623XXSP,2013-01-29 03:39:00,
2013-01-28 22:41:00,30.0,26.9,29.90,SSE,157,0.0,0.0,88,0.00,,,0.00,WUHU21623XXSP,2013-01-29 03:41:00,
2013-01-28 22:44:00,30.0,26.9,29.90,SSE,157,0.0,0.0,88,0.00,,,0.00,WUHU21623XXSP,2013-01-29 03:44:00,
2013-01-28 22:46:00,30.0,26.9,29.91,NE,45,2.0,2.0,88,0.00,,,0.00,WUHU21623XXSP,2013-01-29 03:46:00,
2013-01-28 22:48:00,30.0,26.9,29.91,NE,45,1.6,2.0,88,0.00,,,0.00,WUHU21623XXSP,2013-01-29 03:48:00,
2013-01-28 22:50:00,30.0,26.9,29.91,NE,45,1.6,2.0,88,0.00,,,0.00,WUHU21623XXSP,2013-01-29 03:50:00,
2013-01-28 22:52:00,29.8,26.7,29.91,NNE,22,0.2,2.0,88,0.00,,,0.00,WUHU21623XXSP,2013-01-29 03:52:00,
2013-01-28 22:54:00,29.8,26.7,29.91,NE,45,1.1,2.0,88,0.00,,,0.00,WUHU21623XXSP,2013-01-29 03:54:00,
2013-01-28 22:56:00,29.8,26.5,29.91,NE,45,0.0,1.6,87,0.00,,,0.00,WUHU21623XXSP,2013-01-29 03:56:00,
2013-01-28 22:58:00,29.7,26.3,29.91,NE,45,2.9,2.9,87,0.00,,,0.00,WUHU21623XXSP,2013-01-29 03:58:00,
2013-01-28 23:00:00,29.7,26.3,29.91,NE,45,5.1,5.1,87,0.00,,,0.00,WUHU21623XXSP,2013-01-29 04:00:00,
2013-01-28 23:03:00,29.7,26.3,29.91,NE,45,3.6,5.1,87,0.00,,,0.00,WUHU21623XXSP,2013-01-29 04:03:00,
2013-01-28 23:05:00,29.7,26.3,29.91,NE,45,0.7,5.1,87,0.00,,,0.00,WUHU21623XXSP,2013-01-29 04:05:00,
2013-01-28 23:07:00,29.8,26.7,29.91,NE,45,0.0,5.1,88,0.00,,,0.00,WUHU21623XXSP,2013-01-29 04:07:00,
2013-01-28 23:09:00,29.8,26.7,29.91,NE,45,0.0,5.1,88,0.00,,,0.00,WUHU21623XXSP,2013-01-29 04:09:00,
2013-01-28 23:11:00,29.8,26.7,29.91,NE,45,0.0,3.6,88,0.00,,,0.00,WUHU21623XXSP,2013-01-29 04:11:00,
2013-01-28 23:13:00,30.0,26.9,29.91,NE,45,0.0,0.7,88,0.00,,,0.00,WUHU21623XXSP,2013-01-29 04:13:00,
2013-01-28 23:16:00,30.0,26.9,29.91,NE,45,0.0,0.0,88,0.00,,,0.00,WUHU21623XXSP,2013-01-29 04:16:00,
2013-01-28 23:18:00,30.0,26.9,29.91,NE,45,0.0,0.0,88,0.00,,,0.00,WUHU21623XXSP,2013-01-29 04:18:00,
2013-01-28 23:20:00,30.0,26.9,29.91,NE,45,0.0,0.0,88,0.00,,,0.00,WUHU21623XXSP,2013-01-29 04:20:00,
2013-01-28 23:22:00,30.0,26.9,29.92,NE,45,0.0,0.0,88,0.00,,,0.00,WUHU21623XXSP,2013-01-29 04:22:00,
2013-01-28 23:24:00,30.2,27.1,29.92,NE,45,0.0,0.0,88,0.00,,,0.00,WUHU21623XXSP,2013-01-29 04:24:00,
2013-01-28 23:26:00,30.4,27.3,29.92,NE,45,0.0,0.0,88,0.00,,,0.00,WUHU21623XXSP,2013-01-29 04:26:00,
2013-01-28 23:28:00,30.4,27.3,29.92,NE,45,0.0,0.0,88,0.00,,,0.00,WUHU21623XXSP,2013-01-29 04:28:00,
2013-01-28 23:30:00,30.6,27.5,29.92,NE,45,0.0,0.0,88,0.00,,,0.00,WUHU21623XXSP,2013-01-29 04:30:00,
2013-01-28 23:33:00,30.6,27.5,29.92,NE,45,0.0,0.0,88,0.00,,,0.00,WUHU21623XXSP,2013-01-29 04:33:00,
2013-01-28 23:35:00,30.6,27.5,29.92,NE,45,0.0,0.0,88,0.00,,,0.00,WUHU21623XXSP,2013-01-29 04:35:00,
2013-01-28 23:37:00,30.6,27.5,29.92,NE,45,0.0,0.0,88,0.00,,,0.00,WUHU21623XXSP,2013-01-29 04:37:00,
2013-01-28 23:39:00,30.6,27.5,29.92,NE,45,0.0,0.0,88,0.00,,,0.00,WUHU21623XXSP,2013-01-29 04:39:00,
2013-01-28 23:41:00,30.6,27.5,29.92,NE,45,0.0,0.0,88,0.00,,,0.00,WUHU21623XXSP,2013-01-29 04:41:00,
2013-01-28 23:43:00,30.6,27.5,29.92,NE,45,0.0,0.0,88,0.00,,,0.00,WUHU21623XXSP,2013-01-29 04:43:00,
2013-01-28 23:45:00,30.7,27.6,29.92,NE,45,0.0,0.0,88,0.00,,,0.00,WUHU21623XXSP,2013-01-29 04:45:00,
2013-01-28 23:49:00,30.7,27.6,29.91,NE,45,0.0,0.0,88,0.00,,,0.00,WUHU21623XXSP,2013-01-29 04:49:00,
2013-01-28 23:52:00,30.7,27.6,29.92,NE,45,0.0,0.0,88,0.00,,,0.00,WUHU21623XXSP,2013-01-29 04:52:00,
2013-01-28 23:54:00,30.7,27.6,29.92,NE,45,0.0,0.0,88,0.00,,,0.00,WUHU21623XXSP,2013-01-29 04:54:00,
2013-01-28 23:56:00,30.7,27.6,29.92,NE,45,0.0,0.0,88,0.00,,,0.00,WUHU21623XXSP,2013-01-29 04:56:00,
2013-01-28 23:58:00,30.9,27.8,29.92,NE,45,0.0,0.0,88,0.00,,,0.00,WUHU21623XXSP,2013-01-29 04:58:00,